Time,TemperatureF,DewpointF,PressureIn,WindDirection,WindDirectionDegrees,WindSpeedMPH,WindSpeedGustMPH,Humidity,HourlyPrecipIn,Conditions,Clouds,dailyrainin,SoftwareType,DateUTC
2013-08-11 00:00:00,69.2,64.8,29.28,ESE,111,5.0,6.0,86,0.00,,,0.00,WUHU216DAVISVP2,2013-08-11 04:00:00,
2013-08-11 00:01:00,69.2,64.8,29.28,ESE,111,5.0,6.0,86,0.00,,,0.00,WUHU216DAVISVP2,2013-08-11 04:01:00,
2013-08-11 00:06:00,69.0,65.0,29.28,ESE,110,2.0,6.0,87,0.00,,,0.00,WUHU216DAVISVP2,2013-08-11 04:06:00,
2013-08-11 00:11:00,68.9,64.9,29.28,ESE,110,1.0,6.0,87,0.00,,,0.00,WUHU216DAVISVP2,2013-08-11 04:11:00,
2013-08-11 00:16:00,68.8,65.1,29.28,ESE,112,0.0,6.0,88,0.00,,,0.00,WUHU216DAVISVP2,2013-08-11 04:16:00,
2013-08-11 00:21:00,68.7,65.0,29.29,ESE,114,0.0,5.0,88,0.00,,,0.00,WUHU216DAVISVP2,2013-08-11 04:21:00,
2013-08-11 00:22:00,68.6,64.9,29.29,ESE,114,2.0,5.0,88,0.00,,,0.00,WUHU216DAVISVP2,2013-08-11 04:22:00,
2013-08-11 00:26:00,68.6,64.9,29.29,ESE,114,3.0,5.0,88,0.00,,,0.00,WUHU216DAVISVP2,2013-08-11 04:26:00,
2013-08-11 00:27:00,68.5,64.8,29.29,ESE,114,1.0,5.0,88,0.00,,,0.00,WUHU216DAVISVP2,2013-08-11 04:27:00,
2013-08-11 00:31:00,68.5,65.1,29.28,ESE,114,0.0,5.0,89,0.00,,,0.00,WUHU216DAVISVP2,2013-08-11 04:31:00,
2013-08-11 00:32:00,68.4,65.0,29.28,ESE,114,1.0,5.0,89,0.00,,,0.00,WUHU216DAVISVP2,2013-08-11 04:32:00,
2013-08-11 00:36:00,68.3,64.9,29.28,ESE,114,0.0,4.0,89,0.00,,,0.00,WUHU216DAVISVP2,2013-08-11 04:36:00,
2013-08-11 00:37:00,68.4,65.0,29.28,ESE,114,1.0,4.0,89,0.00,,,0.00,WUHU216DAVISVP2,2013-08-11 04:37:00,
2013-08-11 00:41:00,68.3,65.2,29.29,ESE,114,0.0,4.0,90,0.00,,,0.00,WUHU216DAVISVP2,2013-08-11 04:41:00,
2013-08-11 00:42:00,68.3,65.2,29.29,ESE,114,1.0,4.0,90,0.00,,,0.00,WUHU216DAVISVP2,2013-08-11 04:42:00,
2013-08-11 00:43:00,68.3,65.3,29.29,ESE,114,1.0,4.0,90,0.00,,,0.00,WUHU216DAVISVP2,2013-08-11 04:43:00,
2013-08-11 00:46:00,68.2,65.1,29.29,ESE,111,1.0,4.0,90,0.00,,,0.00,WUHU216DAVISVP2,2013-08-11 04:46:00,
2013-08-11 00:47:00,68.2,65.1,29.29,ESE,111,2.0,4.0,90,0.00,,,0.00,WUHU216DAVISVP2,2013-08-11 04:47:00,
2013-08-11 00:48:00,68.2,65.1,29.29,ESE,111,1.0,4.0,90,0.00,,,0.00,WUHU216DAVISVP2,2013-08-11 04:48:00,
2013-08-11 00:51:00,68.2,65.1,29.29,ESE,109,2.0,4.0,90,0.00,,,0.00,WUHU216DAVISVP2,2013-08-11 04:51:00,
2013-08-11 00:52:00,68.2,65.1,29.29,ESE,110,1.0,4.0,90,0.00,,,0.00,WUHU216DAVISVP2,2013-08-11 04:52:00,
2013-08-11 00:53:00,68.2,65.1,29.28,ESE,110,4.0,4.0,90,0.00,,,0.00,WUHU216DAVISVP2,2013-08-11 04:53:00,
2013-08-11 00:54:00,68.1,65.0,29.29,ESE,110,4.0,4.0,90,0.00,,,0.00,WUHU216DAVISVP2,2013-08-11 04:54:00,
2013-08-11 00:56:00,68.1,65.0,29.29,ESE,110,2.0,5.0,90,0.00,,,0.00,WUHU216DAVISVP2,2013-08-11 04:56:00,
2013-08-11 00:57:00,68.1,65.0,29.29,ESE,110,3.0,5.0,90,0.00,,,0.00,WUHU216DAVISVP2,2013-08-11 04:57:00,
2013-08-11 00:58:00,68.1,65.1,29.29,ESE,108,2.0,5.0,90,0.00,,,0.00,WUHU216DAVISVP2,2013-08-11 04:58:00,
2013-08-11 00:59:00,68.1,65.1,29.28,ESE,108,1.0,5.0,90,0.00,,,0.00,WUHU216DAVISVP2,2013-08-11 04:59:00,
2013-08-11 01:01:00,68.0,65.0,29.28,ESE,108,2.0,5.0,90,0.00,,,0.00,WUHU216DAVISVP2,2013-08-11 05:01:00,
2013-08-11 01:02:00,68.0,65.0,29.28,ESE,108,2.0,5.0,90,0.00,,,0.00,WUHU216DAVISVP2,2013-08-11 05:02:00,
2013-08-11 01:04:00,68.0,64.9,29.28,ESE,109,1.0,5.0,90,0.00,,,0.00,WUHU216DAVISVP2,2013-08-11 05:04:00,
2013-08-11 01:05:00,68.0,65.2,29.28,ESE,109,1.0,5.0,91,0.00,,,0.00,WUHU216DAVISVP2,2013-08-11 05:05:00,
2013-08-11 01:07:00,67.9,65.2,29.28,ESE,109,0.0,5.0,91,0.00,,,0.00,WUHU216DAVISVP2,2013-08-11 05:07:00,
2013-08-11 01:10:00,67.9,65.2,29.28,ESE,109,0.0,5.0,91,0.00,,,0.00,WUHU216DAVISVP2,2013-08-11 05:10:00,
2013-08-11 01:12:00,67.9,65.2,29.28,ESE,109,0.0,5.0,91,0.00,,,0.00,WUHU216DAVISVP2,2013-08-11 05:12:00,
2013-08-11 01:13:00,67.8,65.1,29.28,ESE,109,0.0,5.0,91,0.00,,,0.00,WUHU216DAVISVP2,2013-08-11 05:13:00,
2013-08-11 01:15:00,67.8,65.1,29.29,ESE,109,0.0,5.0,91,0.00,,,0.00,WUHU216DAVISVP2,2013-08-11 05:15:00,
2013-08-11 01:17:00,67.7,65.0,29.28,ESE,109,0.0,5.0,91,0.00,,,0.00,WUHU216DAVISVP2,2013-08-11 05:17:00,
2013-08-11 01:18:00,67.7,65.0,29.28,ESE,109,0.0,5.0,91,0.00,,,0.00,WUHU216DAVISVP2,2013-08-11 05:18:00,
2013-08-11 01:19:00,67.7,65.0,29.28,ESE,108,2.0,5.0,91,0.00,,,0.00,WUHU216DAVISVP2,2013-08-11 05:19:00,
2013-08-11 01:20:00,67.7,65.0,29.28,ESE,109,2.0,5.0,91,0.00,,,0.00,WUHU216DAVISVP2,2013-08-11 05:20:00,
2013-08-11 01:22:00,67.6,65.2,29.28,ESE,109,4.0,5.0,92,0.00,,,0.00,WUHU216DAVISVP2,2013-08-11 05:22:00,
2013-08-11 01:25:00,67.6,64.9,29.28,ESE,109,3.0,4.0,91,0.00,,,0.00,WUHU216DAVISVP2,2013-08-11 05:25:00,
2013-08-11 01:26:00,67.6,64.9,29.28,ESE,109,2.0,4.0,91,0.00,,,0.00,WUHU216DAVISVP2,2013-08-11 05:26:00,
2013-08-11 01:27:00,67.5,64.8,29.28,ESE,109,0.0,4.0,91,0.00,,,0.00,WUHU216DAVISVP2,2013-08-11 05:27:00,
2013-08-11 01:31:00,67.4,64.7,29.28,ESE,109,2.0,4.0,91,0.00,,,0.00,WUHU216DAVISVP2,2013-08-11 05:31:00,
2013-08-11 01:33:00,67.4,65.0,29.28,ESE,109,0.0,4.0,92,0.00,,,0.00,WUHU216DAVISVP2,2013-08-11 05:33:00,
2013-08-11 01:36:00,67.3,64.9,29.28,ESE,109,0.0,5.0,92,0.00,,,0.00,WUHU216DAVISVP2,2013-08-11 05:36:00,
2013-08-11 01:39:00,67.2,64.8,29.28,ESE,109,2.0,5.0,92,0.00,,,0.00,WUHU216DAVISVP2,2013-08-11 05:39:00,
2013-08-11 01:41:00,67.2,64.8,29.28,ESE,109,1.0,5.0,92,0.00,,,0.00,WUHU216DAVISVP2,2013-08-11 05:41:00,
2013-08-11 01:42:00,67.2,64.8,29.28,ESE,109,1.0,5.0,92,0.00,,,0.00,WUHU216DAVISVP2,2013-08-11 05:42:00,
2013-08-11 01:44:00,67.1,64.7,29.28,ESE,109,0.0,5.0,92,0.00,,,0.00,WUHU216DAVISVP2,2013-08-11 05:44:00,
2013-08-11 01:47:00,67.1,64.7,29.28,ESE,109,0.0,5.0,92,0.00,,,0.00,WUHU216DAVISVP2,2013-08-11 05:47:00,
2013-08-11 01:50:00,67.0,64.6,29.28,ESE,109,0.0,5.0,92,0.00,,,0.00,WUHU216DAVISVP2,2013-08-11 05:50:00,
2013-08-11 01:52:00,67.0,64.6,29.28,ESE,109,0.0,5.0,92,0.00,,,0.00,WUHU216DAVISVP2,2013-08-11 05:52:00,
2013-08-11 01:56:00,67.0,64.6,29.28,ESE,109,0.0,2.0,92,0.00,,,0.00,WUHU216DAVISVP2,2013-08-11 05:56:00,
2013-08-11 01:57:00,66.9,64.5,29.28,ESE,109,0.0,2.0,92,0.00,,,0.00,WUHU216DAVISVP2,2013-08-11 05:57:00,
2013-08-11 01:59:00,66.9,64.8,29.28,ESE,109,0.0,2.0,93,0.00,,,0.00,WUHU216DAVISVP2,2013-08-11 05:59:00,
2013-08-11 02:01:00,66.9,64.8,29.28,ESE,109,0.0,1.0,93,0.00,,,0.00,WUHU216DAVISVP2,2013-08-11 06:01:00,
2013-08-11 02:02:00,66.9,64.8,29.28,ESE,109,0.0,1.0,93,0.00,,,0.00,WUHU216DAVISVP2,2013-08-11 06:02:00,
2013-08-11 02:04:00,66.9,64.8,29.28,ESE,109,0.0,0.0,93,0.00,,,0.00,WUHU216DAVISVP2,2013-08-11 06:04:00,
2013-08-11 02:06:00,66.8,64.7,29.28,ESE,109,0.0,0.0,93,0.00,,,0.00,WUHU216DAVISVP2,2013-08-11 06:06:00,
2013-08-11 02:07:00,66.8,64.7,29.28,ESE,109,0.0,0.0,93,0.00,,,0.00,WUHU216DAVISVP2,2013-08-11 06:07:00,
2013-08-11 02:08:00,66.8,64.7,29.28,ENE,72,4.0,4.0,93,0.00,,,0.00,WUHU216DAVISVP2,2013-08-11 06:08:00,
2013-08-11 02:10:00,66.8,64.7,29.28,ENE,72,4.0,4.0,93,0.00,,,0.00,WUHU216DAVISVP2,2013-08-11 06:10:00,
2013-08-11 02:12:00,66.7,64.6,29.28,ENE,72,2.0,4.0,93,0.00,,,0.00,WUHU216DAVISVP2,2013-08-11 06:12:00,
2013-08-11 02:13:00,66.7,64.6,29.28,ENE,72,0.0,4.0,93,0.00,,,0.00,WUHU216DAVISVP2,2013-08-11 06:13:00,
2013-08-11 02:16:00,66.6,64.5,29.28,ENE,72,1.0,4.0,93,0.00,,,0.00,WUHU216DAVISVP2,2013-08-11 06:16:00,
2013-08-11 02:17:00,66.5,64.4,29.28,ENE,72,0.0,4.0,93,0.00,,,0.00,WUHU216DAVISVP2,2013-08-11 06:17:00,
2013-08-11 02:18:00,66.5,64.4,29.28,ENE,72,0.0,4.0,93,0.00,,,0.00,WUHU216DAVISVP2,2013-08-11 06:18:00,
2013-08-11 02:20:00,66.4,64.3,29.28,ENE,72,0.0,4.0,93,0.00,,,0.00,WUHU216DAVISVP2,2013-08-11 06:20:00,
2013-08-11 02:21:00,66.4,64.3,29.28,ENE,72,0.0,4.0,93,0.00,,,0.00,WUHU216DAVISVP2,2013-08-11 06:21:00,
2013-08-11 02:22:00,66.4,64.3,29.28,ENE,72,0.0,4.0,93,0.00,,,0.00,WUHU216DAVISVP2,2013-08-11 06:22:00,
2013-08-11 02:24:00,66.3,64.2,29.28,ENE,73,0.0,4.0,93,0.00,,,0.00,WUHU216DAVISVP2,2013-08-11 06:24:00,
2013-08-11 02:25:00,66.3,64.2,29.28,ENE,72,0.0,4.0,93,0.00,,,0.00,WUHU216DAVISVP2,2013-08-11 06:25:00,
2013-08-11 02:26:00,66.3,64.2,29.28,ENE,72,0.0,4.0,93,0.00,,,0.00,WUHU216DAVISVP2,2013-08-11 06:26:00,
2013-08-11 02:27:00,66.3,64.2,29.28,ENE,72,0.0,4.0,93,0.00,,,0.00,WUHU216DAVISVP2,2013-08-11 06:27:00,
2013-08-11 02:29:00,66.2,64.1,29.27,ENE,73,0.0,4.0,93,0.00,,,0.00,WUHU216DAVISVP2,2013-08-11 06:29:00,
2013-08-11 02:30:00,66.2,64.1,29.27,ENE,72,0.0,4.0,93,0.00,,,0.00,WUHU216DAVISVP2,2013-08-11 06:30:00,
2013-08-11 02:31:00,66.2,64.1,29.27,ENE,72,0.0,2.0,93,0.00,,,0.00,WUHU216DAVISVP2,2013-08-11 06:31:00,
2013-08-11 02:33:00,66.1,64.0,29.27,ENE,72,0.0,2.0,93,0.00,,,0.00,WUHU216DAVISVP2,2013-08-11 06:33:00,
2013-08-11 02:34:00,66.1,64.0,29.27,ENE,72,0.0,2.0,93,0.00,,,0.00,WUHU216DAVISVP2,2013-08-11 06:34:00,
2013-08-11 02:35:00,66.1,64.0,29.27,ENE,72,0.0,2.0,93,0.00,,,0.00,WUHU216DAVISVP2,2013-08-11 06:35:00,
2013-08-11 02:37:00,66.1,64.0,29.28,ENE,72,0.0,1.0,93,0.00,,,0.00,WUHU216DAVISVP2,2013-08-11 06:37:00,
2013-08-11 02:38:00,66.1,64.0,29.27,ENE,72,0.0,1.0,93,0.00,,,0.00,WUHU216DAVISVP2,2013-08-11 06:38:00,
2013-08-11 02:39:00,66.0,63.9,29.28,ENE,72,0.0,1.0,93,0.00,,,0.00,WUHU216DAVISVP2,2013-08-11 06:39:00,
2013-08-11 02:40:00,66.0,63.9,29.28,ENE,72,0.0,1.0,93,0.00,,,0.00,WUHU216DAVISVP2,2013-08-11 06:40:00,
2013-08-11 02:43:00,66.0,63.9,29.27,ENE,72,0.0,0.0,93,0.00,,,0.00,WUHU216DAVISVP2,2013-08-11 06:43:00,
2013-08-11 02:44:00,66.0,63.9,29.27,ENE,73,0.0,0.0,93,0.00,,,0.00,WUHU216DAVISVP2,2013-08-11 06:44:00,
2013-08-11 02:47:00,65.9,63.8,29.28,ENE,72,0.0,0.0,93,0.00,,,0.00,WUHU216DAVISVP2,2013-08-11 06:47:00,
2013-08-11 02:48:00,65.9,63.8,29.28,ENE,72,0.0,0.0,93,0.00,,,0.00,WUHU216DAVISVP2,2013-08-11 06:48:00,
2013-08-11 02:49:00,65.9,63.8,29.27,ENE,72,0.0,0.0,93,0.00,,,0.00,WUHU216DAVISVP2,2013-08-11 06:49:00,
2013-08-11 02:52:00,65.8,63.7,29.28,ENE,72,0.0,0.0,93,0.00,,,0.00,WUHU216DAVISVP2,2013-08-11 06:52:00,
2013-08-11 02:53:00,65.8,63.7,29.27,ENE,72,0.0,0.0,93,0.00,,,0.00,WUHU216DAVISVP2,2013-08-11 06:53:00,
2013-08-11 02:55:00,65.7,63.3,29.28,ENE,72,0.0,0.0,92,0.00,,,0.00,WUHU216DAVISVP2,2013-08-11 06:55:00,
2013-08-11 02:57:00,65.7,63.6,29.28,ENE,72,0.0,0.0,93,0.00,,,0.00,WUHU216DAVISVP2,2013-08-11 06:57:00,
2013-08-11 02:58:00,65.6,63.5,29.28,ENE,72,0.0,0.0,93,0.00,,,0.00,WUHU216DAVISVP2,2013-08-11 06:58:00,
2013-08-11 03:01:00,65.6,63.5,29.27,ENE,72,0.0,0.0,93,0.00,,,0.00,WUHU216DAVISVP2,2013-08-11 07:01:00,
2013-08-11 03:02:00,65.6,63.5,29.27,ENE,72,0.0,0.0,93,0.00,,,0.00,WUHU216DAVISVP2,2013-08-11 07:02:00,
2013-08-11 03:04:00,65.6,63.5,29.27,ENE,72,0.0,0.0,93,0.00,,,0.00,WUHU216DAVISVP2,2013-08-11 07:04:00,
2013-08-11 03:06:00,65.6,63.5,29.27,ENE,72,0.0,0.0,93,0.00,,,0.00,WUHU216DAVISVP2,2013-08-11 07:06:00,
2013-08-11 03:07:00,65.6,63.5,29.27,ENE,72,0.0,0.0,93,0.00,,,0.00,WUHU216DAVISVP2,2013-08-11 07:07:00,
2013-08-11 03:08:00,65.6,63.5,29.27,ENE,72,0.0,0.0,93,0.00,,,0.00,WUHU216DAVISVP2,2013-08-11 07:08:00,
2013-08-11 03:09:00,65.6,63.5,29.27,ENE,72,0.0,0.0,93,0.00,,,0.00,WUHU216DAVISVP2,2013-08-11 07:09:00,
2013-08-11 03:12:00,65.6,63.5,29.28,ENE,72,0.0,0.0,93,0.00,,,0.00,WUHU216DAVISVP2,2013-08-11 07:12:00,
2013-08-11 03:13:00,65.6,63.5,29.28,ENE,72,0.0,0.0,93,0.00,,,0.00,WUHU216DAVISVP2,2013-08-11 07:13:00,
2013-08-11 03:14:00,65.6,63.5,29.28,ENE,73,0.0,0.0,93,0.00,,,0.00,WUHU216DAVISVP2,2013-08-11 07:14:00,
2013-08-11 03:18:00,65.6,63.5,29.27,ENE,72,0.0,0.0,93,0.00,,,0.00,WUHU216DAVISVP2,2013-08-11 07:18:00,
2013-08-11 03:19:00,65.6,63.5,29.27,ENE,72,0.0,0.0,93,0.00,,,0.00,WUHU216DAVISVP2,2013-08-11 07:19:00,
2013-08-11 03:20:00,65.5,63.4,29.27,ENE,72,0.0,0.0,93,0.00,,,0.00,WUHU216DAVISVP2,2013-08-11 07:20:00,
2013-08-11 03:23:00,65.5,63.4,29.27,ENE,72,0.0,0.0,93,0.00,,,0.00,WUHU216DAVISVP2,2013-08-11 07:23:00,
2013-08-11 03:24:00,65.5,63.4,29.27,ENE,72,0.0,0.0,93,0.00,,,0.00,WUHU216DAVISVP2,2013-08-11 07:24:00,
2013-08-11 03:25:00,65.4,63.3,29.27,ENE,72,0.0,0.0,93,0.00,,,0.00,WUHU216DAVISVP2,2013-08-11 07:25:00,
2013-08-11 03:29:00,65.4,63.3,29.27,ENE,72,0.0,0.0,93,0.00,,,0.00,WUHU216DAVISVP2,2013-08-11 07:29:00,
2013-08-11 03:30:00,65.4,63.6,29.27,ENE,73,0.0,0.0,94,0.00,,,0.00,WUHU216DAVISVP2,2013-08-11 07:30:00,
2013-08-11 03:31:00,65.4,63.6,29.27,ENE,72,0.0,0.0,94,0.00,,,0.00,WUHU216DAVISVP2,2013-08-11 07:31:00,
2013-08-11 03:34:00,65.4,63.6,29.27,ENE,72,0.0,0.0,94,0.00,,,0.00,WUHU216DAVISVP2,2013-08-11 07:34:00,
2013-08-11 03:36:00,65.3,63.5,29.27,ENE,72,0.0,0.0,94,0.00,,,0.00,WUHU216DAVISVP2,2013-08-11 07:36:00,
2013-08-11 03:39:00,65.2,63.4,29.27,ENE,72,0.0,0.0,94,0.00,,,0.00,WUHU216DAVISVP2,2013-08-11 07:39:00,
2013-08-11 03:42:00,65.2,63.4,29.27,ENE,72,0.0,0.0,94,0.00,,,0.00,WUHU216DAVISVP2,2013-08-11 07:42:00,
2013-08-11 03:44:00,65.2,63.4,29.27,ENE,72,0.0,0.0,94,0.00,,,0.00,WUHU216DAVISVP2,2013-08-11 07:44:00,
2013-08-11 03:47:00,65.2,63.4,29.27,ENE,72,0.0,0.0,94,0.00,,,0.00,WUHU216DAVISVP2,2013-08-11 07:47:00,
2013-08-11 03:49:00,65.2,63.4,29.27,ENE,73,0.0,0.0,94,0.00,,,0.00,WUHU216DAVISVP2,2013-08-11 07:49:00,
2013-08-11 03:52:00,65.1,63.3,29.27,ENE,72,0.0,0.0,94,0.00,,,0.00,WUHU216DAVISVP2,2013-08-11 07:52:00,
2013-08-11 03:54:00,65.1,63.3,29.27,ENE,72,0.0,0.0,94,0.00,,,0.00,WUHU216DAVISVP2,2013-08-11 07:54:00,
2013-08-11 03:57:00,65.1,63.3,29.27,ENE,72,0.0,0.0,94,0.00,,,0.00,WUHU216DAVISVP2,2013-08-11 07:57:00,
2013-08-11 03:58:00,65.1,63.3,29.27,ENE,72,0.0,0.0,94,0.00,,,0.00,WUHU216DAVISVP2,2013-08-11 07:58:00,
2013-08-11 03:59:00,65.1,63.3,29.27,ENE,72,0.0,1.0,94,0.00,,,0.00,WUHU216DAVISVP2,2013-08-11 07:59:00,
2013-08-11 04:03:00,65.1,63.3,29.27,ENE,72,0.0,1.0,94,0.00,,,0.00,WUHU216DAVISVP2,2013-08-11 08:03:00,
2013-08-11 04:04:00,65.0,63.2,29.27,ENE,72,0.0,1.0,94,0.00,,,0.00,WUHU216DAVISVP2,2013-08-11 08:04:00,
2013-08-11 04:08:00,65.0,63.2,29.27,ENE,72,0.0,1.0,94,0.00,,,0.00,WUHU216DAVISVP2,2013-08-11 08:08:00,
2013-08-11 04:10:00,65.0,63.2,29.27,ENE,72,0.0,1.0,94,0.00,,,0.00,WUHU216DAVISVP2,2013-08-11 08:10:00,
2013-08-11 04:13:00,65.0,63.2,29.27,ENE,72,0.0,1.0,94,0.00,,,0.00,WUHU216DAVISVP2,2013-08-11 08:13:00,
2013-08-11 04:14:00,64.9,63.1,29.27,ENE,72,0.0,1.0,94,0.00,,,0.00,WUHU216DAVISVP2,2013-08-11 08:14:00,
2013-08-11 04:15:00,64.9,63.1,29.27,ENE,72,0.0,1.0,94,0.00,,,0.00,WUHU216DAVISVP2,2013-08-11 08:15:00,
2013-08-11 04:18:00,64.9,63.1,29.27,ENE,72,0.0,1.0,94,0.00,,,0.00,WUHU216DAVISVP2,2013-08-11 08:18:00,
2013-08-11 04:19:00,64.8,63.0,29.27,ENE,73,0.0,1.0,94,0.00,,,0.00,WUHU216DAVISVP2,2013-08-11 08:19:00,
2013-08-11 04:20:00,64.8,63.0,29.27,ENE,72,0.0,1.0,94,0.00,,,0.00,WUHU216DAVISVP2,2013-08-11 08:20:00,
2013-08-11 04:21:00,64.8,63.0,29.27,ENE,72,0.0,1.0,94,0.00,,,0.00,WUHU216DAVISVP2,2013-08-11 08:21:00,
2013-08-11 04:24:00,64.8,63.0,29.27,ENE,72,0.0,1.0,94,0.00,,,0.00,WUHU216DAVISVP2,2013-08-11 08:24:00,
2013-08-11 04:25:00,64.7,62.9,29.27,ENE,72,0.0,2.0,94,0.00,,,0.00,WUHU216DAVISVP2,2013-08-11 08:25:00,
2013-08-11 04:26:00,64.7,62.9,29.27,ENE,72,1.0,2.0,94,0.00,,,0.00,WUHU216DAVISVP2,2013-08-11 08:26:00,
2013-08-11 04:29:00,64.6,62.8,29.27,ENE,72,0.0,2.0,94,0.00,,,0.00,WUHU216DAVISVP2,2013-08-11 08:29:00,
2013-08-11 04:31:00,64.6,62.8,29.28,ENE,72,2.0,2.0,94,0.00,,,0.00,WUHU216DAVISVP2,2013-08-11 08:31:00,
2013-08-11 04:34:00,64.6,62.8,29.28,ENE,72,0.0,2.0,94,0.00,,,0.00,WUHU216DAVISVP2,2013-08-11 08:34:00,
2013-08-11 04:35:00,64.6,62.8,29.27,ENE,72,1.0,2.0,94,0.00,,,0.00,WUHU216DAVISVP2,2013-08-11 08:35:00,
2013-08-11 04:37:00,64.5,62.7,29.27,ENE,72,0.0,2.0,94,0.00,,,0.00,WUHU216DAVISVP2,2013-08-11 08:37:00,
2013-08-11 04:39:00,64.5,62.7,29.27,ENE,72,0.0,2.0,94,0.00,,,0.00,WUHU216DAVISVP2,2013-08-11 08:39:00,
2013-08-11 04:40:00,64.5,62.7,29.27,ENE,72,0.0,2.0,94,0.00,,,0.00,WUHU216DAVISVP2,2013-08-11 08:40:00,
2013-08-11 04:42:00,64.5,62.7,29.27,ENE,72,0.0,2.0,94,0.00,,,0.00,WUHU216DAVISVP2,2013-08-11 08:42:00,
2013-08-11 04:44:00,64.4,62.6,29.27,ENE,73,0.0,2.0,94,0.00,,,0.00,WUHU216DAVISVP2,2013-08-11 08:44:00,
2013-08-11 04:45:00,64.3,62.5,29.27,ENE,72,1.0,2.0,94,0.00,,,0.00,WUHU216DAVISVP2,2013-08-11 08:45:00,
2013-08-11 04:47:00,64.3,62.5,29.27,ENE,72,1.0,2.0,94,0.00,,,0.00,WUHU216DAVISVP2,2013-08-11 08:47:00,
2013-08-11 04:48:00,64.2,62.4,29.27,ENE,72,2.0,2.0,94,0.00,,,0.00,WUHU216DAVISVP2,2013-08-11 08:48:00,
2013-08-11 04:50:00,64.1,62.3,29.27,ENE,72,1.0,2.0,94,0.00,,,0.00,WUHU216DAVISVP2,2013-08-11 08:50:00,
2013-08-11 04:51:00,64.1,62.3,29.27,ENE,72,1.0,2.0,94,0.00,,,0.00,WUHU216DAVISVP2,2013-08-11 08:51:00,
2013-08-11 04:53:00,63.9,62.1,29.27,ENE,72,1.0,2.0,94,0.00,,,0.00,WUHU216DAVISVP2,2013-08-11 08:53:00,
2013-08-11 04:55:00,63.7,61.9,29.28,ENE,72,2.0,4.0,94,0.00,,,0.00,WUHU216DAVISVP2,2013-08-11 08:55:00,
2013-08-11 04:56:00,63.7,61.9,29.28,ENE,72,2.0,4.0,94,0.00,,,0.00,WUHU216DAVISVP2,2013-08-11 08:56:00,
2013-08-11 04:58:00,63.6,61.8,29.27,ENE,72,2.0,4.0,94,0.00,,,0.00,WUHU216DAVISVP2,2013-08-11 08:58:00,
2013-08-11 04:59:00,63.6,61.8,29.27,ENE,72,1.0,4.0,94,0.00,,,0.00,WUHU216DAVISVP2,2013-08-11 08:59:00,
2013-08-11 05:01:00,63.5,61.7,29.27,ENE,72,2.0,4.0,94,0.00,,,0.00,WUHU216DAVISVP2,2013-08-11 09:01:00,
2013-08-11 05:03:00,63.4,61.6,29.27,ENE,72,2.0,4.0,94,0.00,,,0.00,WUHU216DAVISVP2,2013-08-11 09:03:00,
2013-08-11 05:04:00,63.4,61.6,29.27,ENE,72,4.0,4.0,94,0.00,,,0.00,WUHU216DAVISVP2,2013-08-11 09:04:00,
2013-08-11 05:06:00,63.3,61.5,29.27,ENE,72,4.0,4.0,94,0.00,,,0.00,WUHU216DAVISVP2,2013-08-11 09:06:00,
2013-08-11 05:07:00,63.3,61.5,29.27,ENE,72,4.0,4.0,94,0.00,,,0.00,WUHU216DAVISVP2,2013-08-11 09:07:00,
2013-08-11 05:09:00,63.2,61.4,29.27,ENE,72,1.0,5.0,94,0.00,,,0.00,WUHU216DAVISVP2,2013-08-11 09:09:00,
2013-08-11 05:11:00,63.1,61.3,29.27,ENE,72,2.0,5.0,94,0.00,,,0.00,WUHU216DAVISVP2,2013-08-11 09:11:00,
2013-08-11 05:12:00,63.1,61.3,29.27,ENE,72,2.0,5.0,94,0.00,,,0.00,WUHU216DAVISVP2,2013-08-11 09:12:00,
2013-08-11 05:14:00,63.0,61.2,29.28,ENE,72,1.0,5.0,94,0.00,,,0.00,WUHU216DAVISVP2,2013-08-11 09:14:00,
2013-08-11 05:15:00,63.0,61.2,29.28,ENE,72,2.0,5.0,94,0.00,,,0.00,WUHU216DAVISVP2,2013-08-11 09:15:00,
2013-08-11 05:16:00,62.9,61.1,29.27,ENE,72,2.0,5.0,94,0.00,,,0.00,WUHU216DAVISVP2,2013-08-11 09:16:00,
2013-08-11 05:17:00,62.9,61.1,29.27,ENE,72,3.0,5.0,94,0.00,,,0.00,WUHU216DAVISVP2,2013-08-11 09:17:00,
2013-08-11 05:19:00,62.8,61.0,29.27,ENE,72,4.0,5.0,94,0.00,,,0.00,WUHU216DAVISVP2,2013-08-11 09:19:00,
2013-08-11 05:21:00,62.8,61.0,29.27,ENE,72,2.0,5.0,94,0.00,,,0.00,WUHU216DAVISVP2,2013-08-11 09:21:00,
2013-08-11 05:22:00,62.7,60.9,29.27,ENE,72,3.0,5.0,94,0.00,,,0.00,WUHU216DAVISVP2,2013-08-11 09:22:00,
2013-08-11 05:25:00,62.7,60.9,29.27,ENE,72,3.0,5.0,94,0.00,,,0.00,WUHU216DAVISVP2,2013-08-11 09:25:00,
2013-08-11 05:27:00,62.6,60.8,29.27,ENE,72,0.0,5.0,94,0.00,,,0.00,WUHU216DAVISVP2,2013-08-11 09:27:00,
2013-08-11 05:28:00,62.6,60.8,29.27,ENE,72,0.0,5.0,94,0.00,,,0.00,WUHU216DAVISVP2,2013-08-11 09:28:00,
2013-08-11 05:30:00,62.6,60.8,29.27,ENE,73,1.0,5.0,94,0.00,,,0.00,WUHU216DAVISVP2,2013-08-11 09:30:00,
2013-08-11 05:33:00,62.6,60.8,29.27,ENE,72,1.0,5.0,94,0.00,,,0.00,WUHU216DAVISVP2,2013-08-11 09:33:00,
2013-08-11 05:34:00,62.6,60.8,29.28,ENE,72,2.0,5.0,94,0.00,,,0.00,WUHU216DAVISVP2,2013-08-11 09:34:00,
2013-08-11 05:35:00,62.5,60.7,29.28,ENE,73,1.0,5.0,94,0.00,,,0.00,WUHU216DAVISVP2,2013-08-11 09:35:00,
2013-08-11 05:38:00,62.5,60.7,29.27,ENE,72,0.0,5.0,94,0.00,,,0.00,WUHU216DAVISVP2,2013-08-11 09:38:00,
2013-08-11 05:40:00,62.4,60.6,29.28,ENE,72,1.0,5.0,94,0.00,,,0.00,WUHU216DAVISVP2,2013-08-11 09:40:00,
2013-08-11 05:43:00,62.3,60.5,29.28,ENE,72,1.0,4.0,94,0.00,,,0.00,WUHU216DAVISVP2,2013-08-11 09:43:00,
2013-08-11 05:46:00,62.2,60.4,29.28,ENE,72,1.0,4.0,94,0.00,,,0.00,WUHU216DAVISVP2,2013-08-11 09:46:00,
2013-08-11 05:48:00,62.2,60.5,29.28,ENE,72,2.0,4.0,94,0.00,,,0.00,WUHU216DAVISVP2,2013-08-11 09:48:00,
2013-08-11 05:49:00,62.2,60.5,29.28,ENE,72,2.0,4.0,94,0.00,,,0.00,WUHU216DAVISVP2,2013-08-11 09:49:00,
2013-08-11 05:51:00,62.2,60.8,29.28,ENE,72,1.0,4.0,95,0.00,,,0.00,WUHU216DAVISVP2,2013-08-11 09:51:00,
2013-08-11 05:52:00,62.1,60.7,29.28,ENE,72,4.0,4.0,95,0.00,,,0.00,WUHU216DAVISVP2,2013-08-11 09:52:00,
2013-08-11 05:54:00,62.1,60.7,29.28,ENE,72,2.0,4.0,95,0.00,,,0.00,WUHU216DAVISVP2,2013-08-11 09:54:00,
2013-08-11 05:56:00,62.1,60.7,29.28,ENE,72,1.0,4.0,95,0.00,,,0.00,WUHU216DAVISVP2,2013-08-11 09:56:00,
2013-08-11 05:57:00,62.1,60.7,29.28,ENE,72,2.0,4.0,95,0.00,,,0.00,WUHU216DAVISVP2,2013-08-11 09:57:00,
2013-08-11 06:00:00,62.0,60.2,29.28,ENE,72,3.0,4.0,94,0.00,,,0.00,WUHU216DAVISVP2,2013-08-11 10:00:00,
2013-08-11 06:02:00,62.0,60.2,29.28,ENE,72,2.0,4.0,94,0.00,,,0.00,WUHU216DAVISVP2,2013-08-11 10:02:00,
2013-08-11 06:06:00,61.9,60.4,29.28,ENE,72,0.0,4.0,95,0.00,,,0.00,WUHU216DAVISVP2,2013-08-11 10:06:00,
2013-08-11 06:07:00,61.9,60.4,29.28,ENE,72,0.0,4.0,95,0.00,,,0.00,WUHU216DAVISVP2,2013-08-11 10:07:00,
2013-08-11 06:08:00,61.9,60.4,29.28,ENE,72,0.0,4.0,95,0.00,,,0.00,WUHU216DAVISVP2,2013-08-11 10:08:00,
2013-08-11 06:11:00,61.9,60.4,29.28,ENE,72,0.0,4.0,95,0.00,,,0.00,WUHU216DAVISVP2,2013-08-11 10:11:00,
2013-08-11 06:13:00,61.9,60.5,29.28,ENE,73,0.0,4.0,95,0.00,,,0.00,WUHU216DAVISVP2,2013-08-11 10:13:00,
2013-08-11 06:17:00,61.8,60.4,29.28,ENE,72,0.0,4.0,95,0.00,,,0.00,WUHU216DAVISVP2,2013-08-11 10:17:00,
2013-08-11 06:18:00,61.8,60.4,29.28,ENE,72,0.0,4.0,95,0.00,,,0.00,WUHU216DAVISVP2,2013-08-11 10:18:00,
2013-08-11 06:24:00,61.8,60.3,29.28,ENE,72,0.0,0.0,95,0.00,,,0.00,WUHU216DAVISVP2,2013-08-11 10:24:00,
2013-08-11 06:26:00,61.8,60.3,29.28,ENE,72,0.0,0.0,95,0.00,,,0.00,WUHU216DAVISVP2,2013-08-11 10:26:00,
2013-08-11 06:30:00,61.8,60.3,29.28,ENE,72,1.0,2.0,95,0.00,,,0.00,WUHU216DAVISVP2,2013-08-11 10:30:00,
2013-08-11 06:31:00,61.8,60.3,29.28,ENE,72,0.0,2.0,95,0.00,,,0.00,WUHU216DAVISVP2,2013-08-11 10:31:00,
2013-08-11 06:35:00,61.7,60.3,29.29,ENE,72,0.0,2.0,95,0.00,,,0.00,WUHU216DAVISVP2,2013-08-11 10:35:00,
2013-08-11 06:36:00,61.7,60.3,29.29,ENE,72,0.0,2.0,95,0.00,,,0.00,WUHU216DAVISVP2,2013-08-11 10:36:00,
2013-08-11 06:40:00,61.7,60.3,29.29,ENE,72,0.0,2.0,95,0.00,,,0.00,WUHU216DAVISVP2,2013-08-11 10:40:00,
2013-08-11 06:41:00,61.6,60.2,29.29,ENE,72,0.0,2.0,95,0.00,,,0.00,WUHU216DAVISVP2,2013-08-11 10:41:00,
2013-08-11 06:42:00,61.6,60.2,29.29,ENE,72,0.0,2.0,95,0.00,,,0.00,WUHU216DAVISVP2,2013-08-11 10:42:00,
2013-08-11 06:46:00,61.6,60.1,29.29,ENE,72,1.0,2.0,95,0.00,,,0.00,WUHU216DAVISVP2,2013-08-11 10:46:00,
2013-08-11 06:47:00,61.6,60.2,29.29,ENE,72,1.0,2.0,95,0.00,,,0.00,WUHU216DAVISVP2,2013-08-11 10:47:00,
2013-08-11 06:51:00,61.6,60.2,29.29,ENE,72,1.0,2.0,95,0.00,,,0.00,WUHU216DAVISVP2,2013-08-11 10:51:00,
2013-08-11 06:52:00,61.6,60.2,29.29,ENE,72,1.0,2.0,95,0.00,,,0.00,WUHU216DAVISVP2,2013-08-11 10:52:00,
2013-08-11 06:53:00,61.6,60.2,29.29,ENE,72,1.0,2.0,95,0.00,,,0.00,WUHU216DAVISVP2,2013-08-11 10:53:00,
2013-08-11 06:56:00,61.6,60.1,29.29,ENE,72,2.0,4.0,95,0.00,,,0.00,WUHU216DAVISVP2,2013-08-11 10:56:00,
2013-08-11 06:58:00,61.6,60.1,29.29,ENE,73,1.0,4.0,95,0.00,,,0.00,WUHU216DAVISVP2,2013-08-11 10:58:00,
2013-08-11 07:02:00,61.7,60.3,29.29,ENE,72,0.0,4.0,95,0.00,,,0.00,WUHU216DAVISVP2,2013-08-11 11:02:00,
2013-08-11 07:03:00,61.7,60.3,29.29,ENE,72,1.0,4.0,95,0.00,,,0.00,WUHU216DAVISVP2,2013-08-11 11:03:00,
2013-08-11 07:08:00,61.7,60.2,29.29,ENE,72,0.0,4.0,95,0.00,,,0.00,WUHU216DAVISVP2,2013-08-11 11:08:00,
2013-08-11 07:09:00,61.8,60.3,29.29,ENE,72,0.0,4.0,95,0.00,,,0.00,WUHU216DAVISVP2,2013-08-11 11:09:00,
2013-08-11 07:13:00,61.8,60.3,29.29,ENE,72,0.0,4.0,95,0.00,,,0.00,WUHU216DAVISVP2,2013-08-11 11:13:00,
2013-08-11 07:15:00,61.8,60.3,29.29,ENE,72,0.0,4.0,95,0.00,,,0.00,WUHU216DAVISVP2,2013-08-11 11:15:00,
2013-08-11 07:18:00,61.9,60.4,29.29,ENE,72,0.0,4.0,95,0.00,,,0.00,WUHU216DAVISVP2,2013-08-11 11:18:00,
2013-08-11 07:19:00,62.0,60.5,29.29,ENE,72,1.0,4.0,95,0.00,,,0.00,WUHU216DAVISVP2,2013-08-11 11:19:00,
2013-08-11 07:20:00,62.0,60.5,29.29,ENE,72,0.0,2.0,95,0.00,,,0.00,WUHU216DAVISVP2,2013-08-11 11:20:00,
2013-08-11 07:24:00,62.2,60.7,29.29,ENE,72,0.0,2.0,95,0.00,,,0.00,WUHU216DAVISVP2,2013-08-11 11:24:00,
2013-08-11 07:25:00,62.2,60.7,29.29,ENE,72,0.0,2.0,95,0.00,,,0.00,WUHU216DAVISVP2,2013-08-11 11:25:00,
2013-08-11 07:29:00,62.3,60.8,29.29,ENE,72,0.0,2.0,95,0.00,,,0.00,WUHU216DAVISVP2,2013-08-11 11:29:00,
2013-08-11 07:31:00,62.3,60.8,29.29,ENE,72,0.0,2.0,95,0.00,,,0.00,WUHU216DAVISVP2,2013-08-11 11:31:00,
2013-08-11 07:35:00,62.5,61.0,29.29,ENE,72,0.0,2.0,95,0.00,,,0.00,WUHU216DAVISVP2,2013-08-11 11:35:00,
2013-08-11 07:36:00,62.5,61.0,29.29,ENE,72,0.0,2.0,95,0.00,,,0.00,WUHU216DAVISVP2,2013-08-11 11:36:00,
2013-08-11 07:40:00,62.3,60.8,29.29,ENE,72,0.0,2.0,95,0.00,,,0.00,WUHU216DAVISVP2,2013-08-11 11:40:00,
2013-08-11 07:41:00,62.3,60.8,29.28,ENE,72,0.0,2.0,95,0.00,,,0.00,WUHU216DAVISVP2,2013-08-11 11:41:00,
2013-08-11 07:45:00,62.3,60.8,29.28,ENE,72,0.0,2.0,95,0.00,,,0.00,WUHU216DAVISVP2,2013-08-11 11:45:00,
2013-08-11 07:46:00,62.3,60.8,29.28,ENE,72,1.0,2.0,95,0.00,,,0.00,WUHU216DAVISVP2,2013-08-11 11:46:00,
2013-08-11 07:47:00,62.5,61.0,29.28,ENE,72,0.0,2.0,95,0.00,,,0.00,WUHU216DAVISVP2,2013-08-11 11:47:00,
2013-08-11 07:50:00,62.8,61.3,29.28,ENE,72,1.0,2.0,95,0.00,,,0.00,WUHU216DAVISVP2,2013-08-11 11:50:00,
2013-08-11 07:51:00,62.8,61.3,29.28,ENE,72,1.0,2.0,95,0.00,,,0.00,WUHU216DAVISVP2,2013-08-11 11:51:00,
2013-08-11 07:52:00,62.9,61.4,29.29,ENE,72,0.0,2.0,95,0.00,,,0.00,WUHU216DAVISVP2,2013-08-11 11:52:00,
2013-08-11 07:53:00,62.9,61.4,29.29,ENE,72,0.0,2.0,95,0.00,,,0.00,WUHU216DAVISVP2,2013-08-11 11:53:00,
2013-08-11 07:55:00,63.1,61.6,29.28,ENE,72,0.0,2.0,95,0.00,,,0.00,WUHU216DAVISVP2,2013-08-11 11:55:00,
2013-08-11 07:57:00,63.2,61.7,29.28,ENE,72,0.0,2.0,95,0.00,,,0.00,WUHU216DAVISVP2,2013-08-11 11:57:00,
2013-08-11 07:58:00,63.2,61.7,29.28,ENE,72,0.0,2.0,95,0.00,,,0.00,WUHU216DAVISVP2,2013-08-11 11:58:00,
2013-08-11 07:59:00,63.3,61.8,29.28,ENE,72,0.0,2.0,95,0.00,,,0.00,WUHU216DAVISVP2,2013-08-11 11:59:00,
2013-08-11 08:00:00,63.5,62.0,29.28,ENE,72,0.0,2.0,95,0.00,,,0.00,WUHU216DAVISVP2,2013-08-11 12:00:00,
2013-08-11 08:03:00,63.8,62.6,29.28,ENE,72,1.0,4.0,96,0.00,,,0.00,WUHU216DAVISVP2,2013-08-11 12:03:00,
2013-08-11 08:05:00,64.0,62.5,29.28,ENE,72,0.0,4.0,95,0.00,,,0.00,WUHU216DAVISVP2,2013-08-11 12:05:00,
2013-08-11 08:08:00,64.2,62.7,29.28,ENE,72,0.0,4.0,95,0.00,,,0.00,WUHU216DAVISVP2,2013-08-11 12:08:00,
2013-08-11 08:11:00,64.4,62.9,29.28,ENE,72,0.0,4.0,95,0.00,,,0.00,WUHU216DAVISVP2,2013-08-11 12:11:00,
2013-08-11 08:13:00,64.6,63.1,29.28,ENE,72,0.0,4.0,95,0.00,,,0.00,WUHU216DAVISVP2,2013-08-11 12:13:00,
2013-08-11 08:14:00,64.7,62.9,29.28,ENE,72,0.0,4.0,94,0.00,,,0.00,WUHU216DAVISVP2,2013-08-11 12:14:00,
2013-08-11 08:16:00,64.8,63.0,29.28,ENE,72,0.0,4.0,94,0.00,,,0.00,WUHU216DAVISVP2,2013-08-11 12:16:00,
2013-08-11 08:17:00,64.8,63.0,29.28,ENE,73,0.0,4.0,94,0.00,,,0.00,WUHU216DAVISVP2,2013-08-11 12:17:00,
2013-08-11 08:18:00,64.9,63.1,29.28,ENE,72,0.0,4.0,94,0.00,,,0.00,WUHU216DAVISVP2,2013-08-11 12:18:00,
2013-08-11 08:20:00,65.0,63.2,29.28,ENE,72,0.0,4.0,94,0.00,,,0.00,WUHU216DAVISVP2,2013-08-11 12:20:00,
2013-08-11 08:21:00,65.0,63.2,29.28,ENE,72,1.0,4.0,94,0.00,,,0.00,WUHU216DAVISVP2,2013-08-11 12:21:00,
2013-08-11 08:22:00,65.0,63.2,29.28,ENE,72,1.0,4.0,94,0.00,,,0.00,WUHU216DAVISVP2,2013-08-11 12:22:00,
2013-08-11 08:24:00,65.0,62.9,29.28,ENE,72,0.0,4.0,93,0.00,,,0.00,WUHU216DAVISVP2,2013-08-11 12:24:00,
2013-08-11 08:27:00,65.1,63.0,29.28,ENE,72,0.0,4.0,93,0.00,,,0.00,WUHU216DAVISVP2,2013-08-11 12:27:00,
2013-08-11 08:30:00,65.2,63.1,29.29,ENE,73,1.0,4.0,93,0.00,,,0.00,WUHU216DAVISVP2,2013-08-11 12:30:00,
2013-08-11 08:32:00,65.3,63.2,29.29,ENE,72,2.0,4.0,93,0.00,,,0.00,WUHU216DAVISVP2,2013-08-11 12:32:00,
2013-08-11 08:33:00,65.3,63.2,29.29,ENE,72,0.0,4.0,93,0.00,,,0.00,WUHU216DAVISVP2,2013-08-11 12:33:00,
2013-08-11 08:35:00,65.5,63.4,29.28,ENE,72,0.0,4.0,93,0.00,,,0.00,WUHU216DAVISVP2,2013-08-11 12:35:00,
2013-08-11 08:38:00,65.7,63.3,29.28,ENE,72,0.0,4.0,92,0.00,,,0.00,WUHU216DAVISVP2,2013-08-11 12:38:00,
2013-08-11 08:39:00,65.6,63.2,29.28,ENE,72,0.0,4.0,92,0.00,,,0.00,WUHU216DAVISVP2,2013-08-11 12:39:00,
2013-08-11 08:41:00,65.9,63.5,29.28,ENE,72,0.0,4.0,92,0.00,,,0.00,WUHU216DAVISVP2,2013-08-11 12:41:00,
2013-08-11 08:43:00,66.1,63.7,29.29,ENE,72,3.0,4.0,92,0.00,,,0.00,WUHU216DAVISVP2,2013-08-11 12:43:00,
2013-08-11 08:44:00,66.2,63.8,29.29,ENE,72,0.0,4.0,92,0.00,,,0.00,WUHU216DAVISVP2,2013-08-11 12:44:00,
2013-08-11 08:46:00,66.3,63.6,29.29,ENE,72,2.0,4.0,91,0.00,,,0.00,WUHU216DAVISVP2,2013-08-11 12:46:00,
2013-08-11 08:48:00,66.3,63.6,29.29,East,88,1.0,5.0,91,0.00,,,0.00,WUHU216DAVISVP2,2013-08-11 12:48:00,
2013-08-11 08:49:00,66.3,63.6,29.29,East,88,0.0,5.0,91,0.00,,,0.00,WUHU216DAVISVP2,2013-08-11 12:49:00,
2013-08-11 08:51:00,66.5,63.5,29.29,East,88,0.0,5.0,90,0.00,,,0.00,WUHU216DAVISVP2,2013-08-11 12:51:00,
2013-08-11 08:54:00,66.6,63.6,29.29,East,88,0.0,5.0,90,0.00,,,0.00,WUHU216DAVISVP2,2013-08-11 12:54:00,
2013-08-11 08:56:00,66.9,63.9,29.29,East,88,0.0,5.0,90,0.00,,,0.00,WUHU216DAVISVP2,2013-08-11 12:56:00,
2013-08-11 08:59:00,67.0,63.6,29.29,East,88,0.0,5.0,89,0.00,,,0.00,WUHU216DAVISVP2,2013-08-11 12:59:00,
2013-08-11 09:02:00,67.2,63.8,29.29,East,88,0.0,5.0,89,0.00,,,0.00,WUHU216DAVISVP2,2013-08-11 13:02:00,
2013-08-11 09:05:00,67.4,63.7,29.29,East,88,0.0,5.0,88,0.00,,,0.00,WUHU216DAVISVP2,2013-08-11 13:05:00,
2013-08-11 09:08:00,67.8,64.1,29.29,ENE,69,5.0,6.0,88,0.00,,,0.00,WUHU216DAVISVP2,2013-08-11 13:08:00,
2013-08-11 09:10:00,67.9,64.2,29.29,ENE,69,4.0,6.0,88,0.00,,,0.00,WUHU216DAVISVP2,2013-08-11 13:10:00,
2013-08-11 09:13:00,68.3,64.0,29.29,ENE,75,4.0,6.0,86,0.00,,,0.00,WUHU216DAVISVP2,2013-08-11 13:13:00,
2013-08-11 09:15:00,68.3,64.0,29.29,ENE,78,2.0,6.0,86,0.00,,,0.00,WUHU216DAVISVP2,2013-08-11 13:15:00,
2013-08-11 09:17:00,68.2,63.5,29.29,ENE,78,2.0,6.0,85,0.00,,,0.00,WUHU216DAVISVP2,2013-08-11 13:17:00,
2013-08-11 09:19:00,68.2,63.9,29.29,ENE,78,2.0,6.0,86,0.00,,,0.00,WUHU216DAVISVP2,2013-08-11 13:19:00,
2013-08-11 09:20:00,68.3,64.0,29.29,ENE,78,2.0,6.0,86,0.00,,,0.00,WUHU216DAVISVP2,2013-08-11 13:20:00,
2013-08-11 09:22:00,68.3,64.0,29.29,ENE,78,1.0,6.0,86,0.00,,,0.00,WUHU216DAVISVP2,2013-08-11 13:22:00,
2013-08-11 09:24:00,68.5,64.2,29.29,ENE,78,0.0,6.0,86,0.00,,,0.00,WUHU216DAVISVP2,2013-08-11 13:24:00,
2013-08-11 09:26:00,68.6,64.2,29.29,ENE,78,2.0,6.0,86,0.00,,,0.00,WUHU216DAVISVP2,2013-08-11 13:26:00,
2013-08-11 09:27:00,68.6,64.2,29.29,ENE,78,0.0,5.0,86,0.00,,,0.00,WUHU216DAVISVP2,2013-08-11 13:27:00,
2013-08-11 09:29:00,68.7,64.3,29.29,ENE,78,0.0,5.0,86,0.00,,,0.00,WUHU216DAVISVP2,2013-08-11 13:29:00,
2013-08-11 09:32:00,69.0,64.7,29.30,ENE,78,1.0,5.0,86,0.00,,,0.00,WUHU216DAVISVP2,2013-08-11 13:32:00,
2013-08-11 09:33:00,69.2,64.8,29.30,ENE,78,1.0,4.0,86,0.00,,,0.00,WUHU216DAVISVP2,2013-08-11 13:33:00,
2013-08-11 09:34:00,69.3,64.9,29.30,ENE,78,3.0,4.0,86,0.00,,,0.00,WUHU216DAVISVP2,2013-08-11 13:34:00,
2013-08-11 09:37:00,69.6,64.9,29.30,ENE,62,4.0,6.0,85,0.00,,,0.00,WUHU216DAVISVP2,2013-08-11 13:37:00,
2013-08-11 09:38:00,69.6,64.9,29.30,ENE,62,2.0,6.0,85,0.00,,,0.00,WUHU216DAVISVP2,2013-08-11 13:38:00,
2013-08-11 09:39:00,69.7,65.0,29.30,ENE,62,3.0,6.0,85,0.00,,,0.00,WUHU216DAVISVP2,2013-08-11 13:39:00,
2013-08-11 09:40:00,69.8,65.1,29.30,ENE,62,4.0,6.0,85,0.00,,,0.00,WUHU216DAVISVP2,2013-08-11 13:40:00,
2013-08-11 09:44:00,69.8,64.8,29.30,ENE,62,4.0,6.0,84,0.00,,,0.00,WUHU216DAVISVP2,2013-08-11 13:44:00,
2013-08-11 09:45:00,69.8,64.5,29.30,ENE,62,2.0,6.0,83,0.00,,,0.00,WUHU216DAVISVP2,2013-08-11 13:45:00,
2013-08-11 09:49:00,70.0,64.9,29.30,ENE,62,2.0,6.0,84,0.00,,,0.00,WUHU216DAVISVP2,2013-08-11 13:49:00,
2013-08-11 09:50:00,70.1,65.0,29.30,ENE,62,3.0,6.0,84,0.00,,,0.00,WUHU216DAVISVP2,2013-08-11 13:50:00,
2013-08-11 09:51:00,70.3,65.2,29.30,ENE,62,5.0,6.0,84,0.00,,,0.00,WUHU216DAVISVP2,2013-08-11 13:51:00,
2013-08-11 09:54:00,70.6,64.8,29.30,ENE,64,5.0,6.0,82,0.00,,,0.00,WUHU216DAVISVP2,2013-08-11 13:54:00,
2013-08-11 09:55:00,70.7,64.9,29.30,ENE,64,3.0,7.0,82,0.00,,,0.00,WUHU216DAVISVP2,2013-08-11 13:55:00,
2013-08-11 09:56:00,70.8,65.0,29.30,ENE,64,1.0,7.0,82,0.00,,,0.00,WUHU216DAVISVP2,2013-08-11 13:56:00,
2013-08-11 09:57:00,70.9,65.1,29.30,ENE,64,1.0,7.0,82,0.00,,,0.00,WUHU216DAVISVP2,2013-08-11 13:57:00,
2013-08-11 09:59:00,71.1,65.7,29.30,ENE,57,5.0,7.0,83,0.00,,,0.00,WUHU216DAVISVP2,2013-08-11 13:59:00,
2013-08-11 10:01:00,71.2,65.5,29.30,NE,41,5.0,7.0,82,0.00,,,0.00,WUHU216DAVISVP2,2013-08-11 14:01:00,
2013-08-11 10:02:00,71.3,65.9,29.30,NE,41,5.0,7.0,83,0.00,,,0.00,WUHU216DAVISVP2,2013-08-11 14:02:00,
2013-08-11 10:04:00,71.3,65.2,29.30,NE,52,5.0,8.0,81,0.00,,,0.00,WUHU216DAVISVP2,2013-08-11 14:04:00,
2013-08-11 10:06:00,71.3,65.5,29.30,ENE,62,5.0,8.0,82,0.00,,,0.00,WUHU216DAVISVP2,2013-08-11 14:06:00,
2013-08-11 10:07:00,71.3,65.5,29.30,ENE,63,4.0,8.0,82,0.00,,,0.00,WUHU216DAVISVP2,2013-08-11 14:07:00,
2013-08-11 10:10:00,71.5,65.4,29.30,NE,50,7.0,8.0,81,0.00,,,0.00,WUHU216DAVISVP2,2013-08-11 14:10:00,
2013-08-11 10:12:00,71.5,65.0,29.30,ENE,65,6.0,8.0,80,0.00,,,0.00,WUHU216DAVISVP2,2013-08-11 14:12:00,
2013-08-11 10:13:00,71.5,65.0,29.30,ENE,67,6.0,8.0,80,0.00,,,0.00,WUHU216DAVISVP2,2013-08-11 14:13:00,
2013-08-11 10:15:00,71.5,65.0,29.30,ENE,70,4.0,8.0,80,0.00,,,0.00,WUHU216DAVISVP2,2013-08-11 14:15:00,
2013-08-11 10:17:00,71.6,65.2,29.30,ENE,70,3.0,8.0,80,0.00,,,0.00,WUHU216DAVISVP2,2013-08-11 14:17:00,
2013-08-11 10:18:00,71.6,65.2,29.30,NE,46,7.0,8.0,80,0.00,,,0.00,WUHU216DAVISVP2,2013-08-11 14:18:00,
2013-08-11 10:19:00,71.6,64.8,29.30,NE,45,6.0,8.0,79,0.00,,,0.00,WUHU216DAVISVP2,2013-08-11 14:19:00,
2013-08-11 10:21:00,71.6,64.8,29.31,NE,50,5.0,8.0,79,0.00,,,0.00,WUHU216DAVISVP2,2013-08-11 14:21:00,
2013-08-11 10:23:00,71.6,64.8,29.30,NE,50,2.0,7.0,79,0.00,,,0.00,WUHU216DAVISVP2,2013-08-11 14:23:00,
2013-08-11 10:24:00,71.7,65.3,29.31,ENE,62,6.0,7.0,80,0.00,,,0.00,WUHU216DAVISVP2,2013-08-11 14:24:00,
2013-08-11 10:28:00,71.9,64.7,29.30,ENE,75,5.0,7.0,78,0.00,,,0.00,WUHU216DAVISVP2,2013-08-11 14:28:00,
2013-08-11 10:29:00,71.9,64.7,29.30,ENE,58,5.0,7.0,78,0.00,,,0.00,WUHU216DAVISVP2,2013-08-11 14:29:00,
2013-08-11 10:30:00,71.9,64.7,29.30,ENE,78,2.0,7.0,78,0.00,,,0.00,WUHU216DAVISVP2,2013-08-11 14:30:00,
2013-08-11 10:33:00,72.0,64.4,29.30,ENE,77,5.0,7.0,77,0.00,,,0.00,WUHU216DAVISVP2,2013-08-11 14:33:00,
2013-08-11 10:34:00,72.1,64.5,29.30,ENE,62,6.0,7.0,77,0.00,,,0.00,WUHU216DAVISVP2,2013-08-11 14:34:00,
2013-08-11 10:35:00,72.1,64.5,29.30,ENE,62,4.0,7.0,77,0.00,,,0.00,WUHU216DAVISVP2,2013-08-11 14:35:00,
2013-08-11 10:38:00,72.6,65.1,29.30,ENE,66,1.0,7.0,77,0.00,,,0.00,WUHU216DAVISVP2,2013-08-11 14:38:00,
2013-08-11 10:40:00,72.8,65.7,29.30,ENE,66,4.0,7.0,78,0.00,,,0.00,WUHU216DAVISVP2,2013-08-11 14:40:00,
2013-08-11 10:41:00,72.9,65.4,29.30,ENE,66,2.0,7.0,77,0.00,,,0.00,WUHU216DAVISVP2,2013-08-11 14:41:00,
2013-08-11 10:44:00,73.1,65.6,29.30,ESE,110,5.0,7.0,77,0.00,,,0.00,WUHU216DAVISVP2,2013-08-11 14:44:00,
2013-08-11 10:46:00,73.2,65.3,29.30,ESE,108,3.0,6.0,76,0.00,,,0.00,WUHU216DAVISVP2,2013-08-11 14:46:00,
2013-08-11 10:47:00,73.2,65.2,29.30,ESE,108,0.0,6.0,76,0.00,,,0.00,WUHU216DAVISVP2,2013-08-11 14:47:00,
2013-08-11 10:49:00,73.3,65.3,29.30,ESE,108,0.0,6.0,76,0.00,,,0.00,WUHU216DAVISVP2,2013-08-11 14:49:00,
2013-08-11 10:51:00,73.5,65.8,29.30,ESE,122,2.0,6.0,77,0.00,,,0.00,WUHU216DAVISVP2,2013-08-11 14:51:00,
2013-08-11 10:52:00,73.5,65.8,29.30,ESE,122,1.0,6.0,77,0.00,,,0.00,WUHU216DAVISVP2,2013-08-11 14:52:00,
2013-08-11 10:54:00,73.8,65.8,29.30,ESE,122,1.0,5.0,76,0.00,,,0.00,WUHU216DAVISVP2,2013-08-11 14:54:00,
2013-08-11 10:57:00,74.1,66.0,29.30,SE,135,0.0,5.0,76,0.00,,,0.00,WUHU216DAVISVP2,2013-08-11 14:57:00,
2013-08-11 10:59:00,74.4,66.0,29.30,ESE,110,4.0,5.0,75,0.00,,,0.00,WUHU216DAVISVP2,2013-08-11 14:59:00,
2013-08-11 11:00:00,74.5,65.3,29.30,SE,126,4.0,5.0,73,0.00,,,0.00,WUHU216DAVISVP2,2013-08-11 15:00:00,
2013-08-11 11:02:00,74.5,65.3,29.30,ESE,118,0.0,5.0,73,0.00,,,0.00,WUHU216DAVISVP2,2013-08-11 15:02:00,
2013-08-11 11:04:00,74.5,65.3,29.30,ESE,118,0.0,5.0,73,0.00,,,0.00,WUHU216DAVISVP2,2013-08-11 15:04:00,
2013-08-11 11:06:00,74.6,65.4,29.30,ENE,61,3.0,5.0,73,0.00,,,0.00,WUHU216DAVISVP2,2013-08-11 15:06:00,
2013-08-11 11:08:00,74.8,66.1,29.30,ENE,73,5.0,5.0,74,0.00,,,0.00,WUHU216DAVISVP2,2013-08-11 15:08:00,
2013-08-11 11:09:00,75.0,65.2,29.31,ENE,73,5.0,5.0,71,0.00,,,0.00,WUHU216DAVISVP2,2013-08-11 15:09:00,
2013-08-11 11:12:00,75.4,64.7,29.30,ENE,73,2.0,5.0,69,0.00,,,0.00,WUHU216DAVISVP2,2013-08-11 15:12:00,
2013-08-11 11:13:00,75.6,64.7,29.30,ENE,73,0.0,5.0,69,0.00,,,0.00,WUHU216DAVISVP2,2013-08-11 15:13:00,
2013-08-11 11:14:00,75.9,65.4,29.30,ENE,73,0.0,5.0,70,0.00,,,0.00,WUHU216DAVISVP2,2013-08-11 15:14:00,
2013-08-11 11:17:00,76.3,65.8,29.30,ENE,73,0.0,5.0,70,0.00,,,0.00,WUHU216DAVISVP2,2013-08-11 15:17:00,
2013-08-11 11:18:00,76.5,66.0,29.30,ENE,73,0.0,5.0,70,0.00,,,0.00,WUHU216DAVISVP2,2013-08-11 15:18:00,
2013-08-11 11:19:00,76.6,66.5,29.30,ENE,70,0.0,5.0,71,0.00,,,0.00,WUHU216DAVISVP2,2013-08-11 15:19:00,
2013-08-11 11:23:00,76.8,66.3,29.30,ENE,70,0.0,5.0,70,0.00,,,0.00,WUHU216DAVISVP2,2013-08-11 15:23:00,
2013-08-11 11:24:00,76.8,66.3,29.30,ENE,70,5.0,5.0,70,0.00,,,0.00,WUHU216DAVISVP2,2013-08-11 15:24:00,
2013-08-11 11:25:00,76.8,66.1,29.30,ENE,65,4.0,5.0,69,0.00,,,0.00,WUHU216DAVISVP2,2013-08-11 15:25:00,
2013-08-11 11:29:00,76.8,65.0,29.30,ENE,59,0.0,6.0,67,0.00,,,0.00,WUHU216DAVISVP2,2013-08-11 15:29:00,
2013-08-11 11:30:00,76.8,65.0,29.30,ENE,59,2.0,6.0,67,0.00,,,0.00,WUHU216DAVISVP2,2013-08-11 15:30:00,
2013-08-11 11:35:00,77.0,65.2,29.30,ENE,58,1.0,6.0,67,0.00,,,0.00,WUHU216DAVISVP2,2013-08-11 15:35:00,
2013-08-11 11:36:00,77.2,65.8,29.30,ENE,59,0.0,6.0,68,0.00,,,0.00,WUHU216DAVISVP2,2013-08-11 15:36:00,
2013-08-11 11:40:00,77.5,66.1,29.30,ENE,59,1.0,6.0,68,0.00,,,0.00,WUHU216DAVISVP2,2013-08-11 15:40:00,
2013-08-11 11:41:00,77.6,66.2,29.30,ENE,67,4.0,6.0,68,0.00,,,0.00,WUHU216DAVISVP2,2013-08-11 15:41:00,
2013-08-11 11:42:00,77.6,65.8,29.30,ENE,67,4.0,6.0,67,0.00,,,0.00,WUHU216DAVISVP2,2013-08-11 15:42:00,
2013-08-11 11:45:00,77.3,65.3,29.30,NNE,25,3.0,7.0,66,0.00,,,0.00,WUHU216DAVISVP2,2013-08-11 15:45:00,
2013-08-11 11:46:00,77.3,65.3,29.30,NNE,25,3.0,7.0,66,0.00,,,0.00,WUHU216DAVISVP2,2013-08-11 15:46:00,
2013-08-11 11:48:00,76.8,65.7,29.30,NNE,25,1.0,7.0,68,0.00,,,0.00,WUHU216DAVISVP2,2013-08-11 15:48:00,
2013-08-11 11:51:00,76.3,65.8,29.29,NW,314,2.0,7.0,70,0.00,,,0.00,WUHU216DAVISVP2,2013-08-11 15:51:00,
2013-08-11 11:52:00,76.1,65.6,29.29,NW,314,0.0,7.0,70,0.00,,,0.00,WUHU216DAVISVP2,2013-08-11 15:52:00,
2013-08-11 11:53:00,76.0,65.9,29.29,NE,52,4.0,7.0,71,0.00,,,0.00,WUHU216DAVISVP2,2013-08-11 15:53:00,
2013-08-11 11:57:00,76.6,65.7,29.29,ENE,65,6.0,7.0,69,0.00,,,0.00,WUHU216DAVISVP2,2013-08-11 15:57:00,
2013-08-11 11:58:00,76.8,65.4,29.29,ENE,68,2.0,7.0,68,0.00,,,0.00,WUHU216DAVISVP2,2013-08-11 15:58:00,
2013-08-11 12:03:00,77.4,65.8,29.29,East,87,0.0,6.0,67,0.00,,,0.00,WUHU216DAVISVP2,2013-08-11 16:03:00,
2013-08-11 12:04:00,77.5,66.3,29.29,East,87,1.0,6.0,68,0.00,,,0.00,WUHU216DAVISVP2,2013-08-11 16:04:00,
2013-08-11 12:09:00,77.6,65.8,29.28,SSW,211,0.0,6.0,67,0.00,,,0.00,WUHU216DAVISVP2,2013-08-11 16:09:00,
2013-08-11 12:10:00,77.5,65.2,29.28,SSE,154,2.0,6.0,66,0.00,,,0.00,WUHU216DAVISVP2,2013-08-11 16:10:00,
2013-08-11 12:14:00,77.1,64.7,29.28,SSW,192,1.0,6.0,65,0.00,,,0.00,WUHU216DAVISVP2,2013-08-11 16:14:00,
2013-08-11 12:15:00,77.0,64.6,29.28,SSW,210,1.0,6.0,65,0.00,,,0.00,WUHU216DAVISVP2,2013-08-11 16:15:00,
2013-08-11 12:16:00,77.0,64.8,29.28,South,174,5.0,6.0,66,0.00,,,0.00,WUHU216DAVISVP2,2013-08-11 16:16:00,
2013-08-11 12:19:00,76.7,64.5,29.28,South,175,1.0,8.0,66,0.00,,,0.00,WUHU216DAVISVP2,2013-08-11 16:19:00,
2013-08-11 12:20:00,76.6,64.4,29.28,South,175,2.0,8.0,66,0.00,,,0.00,WUHU216DAVISVP2,2013-08-11 16:20:00,
2013-08-11 12:21:00,76.5,64.3,29.29,SSW,199,2.0,8.0,66,0.00,,,0.00,WUHU216DAVISVP2,2013-08-11 16:21:00,
2013-08-11 12:24:00,76.5,64.5,29.29,SSW,199,1.0,8.0,66,0.00,,,0.00,WUHU216DAVISVP2,2013-08-11 16:24:00,
2013-08-11 12:25:00,76.6,65.5,29.29,South,170,3.0,8.0,68,0.00,,,0.00,WUHU216DAVISVP2,2013-08-11 16:25:00,
2013-08-11 12:26:00,76.6,64.0,29.29,SSE,166,5.0,8.0,65,0.00,,,0.00,WUHU216DAVISVP2,2013-08-11 16:26:00,
2013-08-11 12:29:00,76.7,64.0,29.29,South,191,4.0,8.0,65,0.00,,,0.00,WUHU216DAVISVP2,2013-08-11 16:29:00,
2013-08-11 12:30:00,76.8,62.8,29.29,South,180,4.0,8.0,62,0.00,,,0.00,WUHU216DAVISVP2,2013-08-11 16:30:00,
2013-08-11 12:32:00,76.8,62.3,29.29,South,180,0.0,8.0,61,0.00,,,0.00,WUHU216DAVISVP2,2013-08-11 16:32:00,
2013-08-11 12:34:00,77.1,62.6,29.29,SSW,203,2.0,8.0,61,0.00,,,0.00,WUHU216DAVISVP2,2013-08-11 16:34:00,
2013-08-11 12:35:00,77.1,62.6,29.29,SSW,203,1.0,8.0,61,0.00,,,0.00,WUHU216DAVISVP2,2013-08-11 16:35:00,
2013-08-11 12:36:00,77.2,62.7,29.29,SSW,203,0.0,7.0,61,0.00,,,0.00,WUHU216DAVISVP2,2013-08-11 16:36:00,
2013-08-11 12:37:00,77.3,63.3,29.29,SW,222,1.0,6.0,62,0.00,,,0.00,WUHU216DAVISVP2,2013-08-11 16:37:00,
2013-08-11 12:39:00,77.4,63.6,29.30,SW,235,0.0,6.0,62,0.00,,,0.00,WUHU216DAVISVP2,2013-08-11 16:39:00,
2013-08-11 12:40:00,77.3,64.0,29.30,SW,235,1.0,6.0,63,0.00,,,0.00,WUHU216DAVISVP2,2013-08-11 16:40:00,
2013-08-11 12:42:00,77.3,64.0,29.30,SW,235,2.0,6.0,63,0.00,,,0.00,WUHU216DAVISVP2,2013-08-11 16:42:00,
2013-08-11 12:43:00,77.3,63.5,29.30,SW,235,0.0,6.0,62,0.00,,,0.00,WUHU216DAVISVP2,2013-08-11 16:43:00,
2013-08-11 12:44:00,77.3,64.0,29.30,ENE,60,4.0,6.0,63,0.00,,,0.00,WUHU216DAVISVP2,2013-08-11 16:44:00,
2013-08-11 12:46:00,77.4,63.6,29.29,ENE,58,2.0,6.0,62,0.00,,,0.00,WUHU216DAVISVP2,2013-08-11 16:46:00,
2013-08-11 12:48:00,77.6,63.5,29.29,ENE,58,2.0,6.0,62,0.00,,,0.00,WUHU216DAVISVP2,2013-08-11 16:48:00,
2013-08-11 12:50:00,77.8,64.2,29.30,NNE,18,2.0,6.0,63,0.00,,,0.00,WUHU216DAVISVP2,2013-08-11 16:50:00,
2013-08-11 12:51:00,77.9,64.7,29.30,NE,35,5.0,6.0,64,0.00,,,0.00,WUHU216DAVISVP2,2013-08-11 16:51:00,
2013-08-11 12:54:00,77.9,63.8,29.29,NE,54,4.0,6.0,62,0.00,,,0.00,WUHU216DAVISVP2,2013-08-11 16:54:00,
2013-08-11 12:55:00,77.8,63.7,29.29,North,359,1.0,6.0,62,0.00,,,0.00,WUHU216DAVISVP2,2013-08-11 16:55:00,
2013-08-11 12:56:00,77.6,63.1,29.29,North,359,5.0,6.0,61,0.00,,,0.00,WUHU216DAVISVP2,2013-08-11 16:56:00,
2013-08-11 13:00:00,77.1,63.3,29.30,North,8,3.0,6.0,62,0.00,,,0.00,WUHU216DAVISVP2,2013-08-11 17:00:00,
2013-08-11 13:01:00,77.0,63.7,29.30,North,8,2.0,6.0,63,0.00,,,0.00,WUHU216DAVISVP2,2013-08-11 17:01:00,
2013-08-11 13:02:00,76.8,63.5,29.30,North,9,2.0,6.0,63,0.00,,,0.00,WUHU216DAVISVP2,2013-08-11 17:02:00,
2013-08-11 13:06:00,76.6,64.0,29.29,North,9,2.0,6.0,65,0.00,,,0.00,WUHU216DAVISVP2,2013-08-11 17:06:00,
2013-08-11 13:07:00,76.6,64.0,29.29,North,9,2.0,6.0,65,0.00,,,0.00,WUHU216DAVISVP2,2013-08-11 17:07:00,
2013-08-11 13:11:00,76.4,62.4,29.30,North,8,2.0,6.0,62,0.00,,,0.00,WUHU216DAVISVP2,2013-08-11 17:11:00,
2013-08-11 13:12:00,76.4,62.4,29.30,North,9,0.0,6.0,62,0.00,,,0.00,WUHU216DAVISVP2,2013-08-11 17:12:00,
2013-08-11 13:16:00,76.8,62.6,29.30,North,9,1.0,5.0,61,0.00,,,0.00,WUHU216DAVISVP2,2013-08-11 17:16:00,
2013-08-11 13:17:00,76.9,61.7,29.30,NNW,330,3.0,5.0,59,0.00,,,0.00,WUHU216DAVISVP2,2013-08-11 17:17:00,
2013-08-11 13:18:00,76.9,61.7,29.30,West,279,2.0,5.0,59,0.00,,,0.00,WUHU216DAVISVP2,2013-08-11 17:18:00,
2013-08-11 13:21:00,77.6,62.3,29.29,East,93,0.0,5.0,59,0.00,,,0.00,WUHU216DAVISVP2,2013-08-11 17:21:00,
2013-08-11 13:22:00,77.8,63.0,29.29,East,93,0.0,5.0,60,0.00,,,0.00,WUHU216DAVISVP2,2013-08-11 17:22:00,
2013-08-11 13:23:00,78.0,62.5,29.29,East,93,0.0,5.0,59,0.00,,,0.00,WUHU216DAVISVP2,2013-08-11 17:23:00,
2013-08-11 13:24:00,78.1,62.6,29.29,East,93,0.0,5.0,59,0.00,,,0.00,WUHU216DAVISVP2,2013-08-11 17:24:00,
2013-08-11 13:27:00,78.7,63.2,29.29,East,91,3.0,5.0,59,0.00,,,0.00,WUHU216DAVISVP2,2013-08-11 17:27:00,
2013-08-11 13:29:00,79.1,63.1,29.29,ENE,60,7.0,7.0,58,0.00,,,0.00,WUHU216DAVISVP2,2013-08-11 17:29:00,
2013-08-11 13:32:00,79.5,62.9,29.28,ENE,63,5.0,8.0,57,0.00,,,0.00,WUHU216DAVISVP2,2013-08-11 17:32:00,
2013-08-11 13:33:00,79.6,63.0,29.28,ENE,64,2.0,8.0,57,0.00,,,0.00,WUHU216DAVISVP2,2013-08-11 17:33:00,
2013-08-11 13:34:00,79.7,63.1,29.28,North,359,7.0,8.0,57,0.00,,,0.00,WUHU216DAVISVP2,2013-08-11 17:34:00,
2013-08-11 13:35:00,79.6,62.5,29.29,NE,36,6.0,8.0,56,0.00,,,0.00,WUHU216DAVISVP2,2013-08-11 17:35:00,
2013-08-11 13:37:00,79.5,62.6,29.29,ENE,58,4.0,8.0,56,0.00,,,0.00,WUHU216DAVISVP2,2013-08-11 17:37:00,
2013-08-11 13:38:00,79.6,62.7,29.29,ENE,58,4.0,8.0,56,0.00,,,0.00,WUHU216DAVISVP2,2013-08-11 17:38:00,
2013-08-11 13:39:00,79.6,62.7,29.29,ENE,58,4.0,8.0,56,0.00,,,0.00,WUHU216DAVISVP2,2013-08-11 17:39:00,
2013-08-11 13:41:00,79.6,63.2,29.28,ENE,58,4.0,8.0,57,0.00,,,0.00,WUHU216DAVISVP2,2013-08-11 17:41:00,
2013-08-11 13:43:00,79.3,61.7,29.29,ENE,58,2.0,8.0,55,0.00,,,0.00,WUHU216DAVISVP2,2013-08-11 17:43:00,
2013-08-11 13:44:00,79.3,61.7,29.29,ENE,58,4.0,8.0,55,0.00,,,0.00,WUHU216DAVISVP2,2013-08-11 17:44:00,
2013-08-11 13:45:00,79.1,62.1,29.29,NE,39,5.0,8.0,56,0.00,,,0.00,WUHU216DAVISVP2,2013-08-11 17:45:00,
2013-08-11 13:46:00,79.1,62.1,29.29,NNE,30,5.0,8.0,56,0.00,,,0.00,WUHU216DAVISVP2,2013-08-11 17:46:00,
2013-08-11 13:49:00,78.9,61.9,29.29,NNE,30,1.0,8.0,56,0.00,,,0.00,WUHU216DAVISVP2,2013-08-11 17:49:00,
2013-08-11 13:50:00,78.9,62.4,29.28,ESE,108,1.0,8.0,57,0.00,,,0.00,WUHU216DAVISVP2,2013-08-11 17:50:00,
2013-08-11 13:52:00,78.9,62.6,29.28,SE,144,0.0,8.0,57,0.00,,,0.00,WUHU216DAVISVP2,2013-08-11 17:52:00,
2013-08-11 13:54:00,78.9,63.1,29.29,SE,144,1.0,8.0,58,0.00,,,0.00,WUHU216DAVISVP2,2013-08-11 17:54:00,
2013-08-11 13:55:00,78.8,62.5,29.29,WNW,300,0.0,7.0,57,0.00,,,0.00,WUHU216DAVISVP2,2013-08-11 17:55:00,
2013-08-11 13:56:00,78.8,62.5,29.29,WNW,300,1.0,7.0,57,0.00,,,0.00,WUHU216DAVISVP2,2013-08-11 17:56:00,
2013-08-11 13:58:00,78.6,62.3,29.28,West,271,5.0,7.0,57,0.00,,,0.00,WUHU216DAVISVP2,2013-08-11 17:58:00,
2013-08-11 13:59:00,78.5,62.2,29.28,West,270,4.0,7.0,57,0.00,,,0.00,WUHU216DAVISVP2,2013-08-11 17:59:00,
2013-08-11 14:00:00,78.4,62.1,29.28,West,271,0.0,7.0,57,0.00,,,0.00,WUHU216DAVISVP2,2013-08-11 18:00:00,
2013-08-11 14:01:00,78.4,62.1,29.28,West,271,0.0,7.0,57,0.00,,,0.00,WUHU216DAVISVP2,2013-08-11 18:01:00,
2013-08-11 14:03:00,78.3,61.8,29.28,NW,324,0.0,7.0,57,0.00,,,0.00,WUHU216DAVISVP2,2013-08-11 18:03:00,
2013-08-11 14:05:00,78.3,62.3,29.28,North,350,6.0,7.0,58,0.00,,,0.00,WUHU216DAVISVP2,2013-08-11 18:05:00,
2013-08-11 14:06:00,78.3,62.3,29.28,North,359,6.0,8.0,58,0.00,,,0.00,WUHU216DAVISVP2,2013-08-11 18:06:00,
2013-08-11 14:08:00,78.3,61.8,29.28,North,8,6.0,8.0,57,0.00,,,0.00,WUHU216DAVISVP2,2013-08-11 18:08:00,
2013-08-11 14:09:00,78.3,63.3,29.28,North,4,6.0,8.0,60,0.00,,,0.00,WUHU216DAVISVP2,2013-08-11 18:09:00,
2013-08-11 14:11:00,78.3,62.8,29.28,NNW,343,4.0,8.0,59,0.00,,,0.00,WUHU216DAVISVP2,2013-08-11 18:11:00,
2013-08-11 14:12:00,78.4,62.4,29.28,North,354,5.0,8.0,58,0.00,,,0.00,WUHU216DAVISVP2,2013-08-11 18:12:00,
2013-08-11 14:13:00,78.4,62.6,29.28,North,4,5.0,8.0,58,0.00,,,0.00,WUHU216DAVISVP2,2013-08-11 18:13:00,
2013-08-11 14:14:00,78.4,63.1,29.28,WNW,297,7.0,8.0,59,0.00,,,0.00,WUHU216DAVISVP2,2013-08-11 18:14:00,
2013-08-11 14:16:00,78.2,61.9,29.28,WNW,297,5.0,8.0,57,0.00,,,0.00,WUHU216DAVISVP2,2013-08-11 18:16:00,
2013-08-11 14:17:00,78.1,61.3,29.28,WNW,298,1.0,8.0,56,0.00,,,0.00,WUHU216DAVISVP2,2013-08-11 18:17:00,
2013-08-11 14:19:00,78.1,61.8,29.28,WNW,298,0.0,8.0,57,0.00,,,0.00,WUHU216DAVISVP2,2013-08-11 18:19:00,
2013-08-11 14:20:00,78.1,61.8,29.28,WNW,298,0.0,8.0,57,0.00,,,0.00,WUHU216DAVISVP2,2013-08-11 18:20:00,
2013-08-11 14:21:00,78.3,62.0,29.28,WNW,298,0.0,8.0,57,0.00,,,0.00,WUHU216DAVISVP2,2013-08-11 18:21:00,
2013-08-11 14:22:00,78.4,62.6,29.28,WNW,298,1.0,8.0,58,0.00,,,0.00,WUHU216DAVISVP2,2013-08-11 18:22:00,
2013-08-11 14:24:00,78.7,63.4,29.28,WNW,298,0.0,8.0,59,0.00,,,0.00,WUHU216DAVISVP2,2013-08-11 18:24:00,
2013-08-11 14:25:00,78.9,63.6,29.29,NNW,337,6.0,8.0,59,0.00,,,0.00,WUHU216DAVISVP2,2013-08-11 18:25:00,
2013-08-11 14:28:00,78.7,61.9,29.29,NW,320,6.0,9.0,56,0.00,,,0.00,WUHU216DAVISVP2,2013-08-11 18:28:00,
2013-08-11 14:29:00,78.7,61.9,29.29,NNW,333,6.0,9.0,56,0.00,,,0.00,WUHU216DAVISVP2,2013-08-11 18:29:00,
2013-08-11 14:31:00,78.4,62.1,29.28,NNW,332,6.0,9.0,57,0.00,,,0.00,WUHU216DAVISVP2,2013-08-11 18:31:00,
2013-08-11 14:33:00,78.4,61.6,29.29,NNW,336,0.0,9.0,56,0.00,,,0.00,WUHU216DAVISVP2,2013-08-11 18:33:00,
2013-08-11 14:34:00,78.3,62.0,29.28,NNW,336,0.0,9.0,57,0.00,,,0.00,WUHU216DAVISVP2,2013-08-11 18:34:00,
2013-08-11 14:37:00,78.5,62.7,29.28,NW,321,5.0,9.0,58,0.00,,,0.00,WUHU216DAVISVP2,2013-08-11 18:37:00,
2013-08-11 14:39:00,78.3,62.0,29.28,NNE,24,5.0,9.0,57,0.00,,,0.00,WUHU216DAVISVP2,2013-08-11 18:39:00,
2013-08-11 14:40:00,78.2,62.4,29.28,North,359,4.0,9.0,58,0.00,,,0.00,WUHU216DAVISVP2,2013-08-11 18:40:00,
2013-08-11 14:43:00,78.0,63.2,29.28,NW,312,5.0,9.0,60,0.00,,,0.00,WUHU216DAVISVP2,2013-08-11 18:43:00,
2013-08-11 14:44:00,77.9,63.1,29.28,WNW,283,4.0,9.0,60,0.00,,,0.00,WUHU216DAVISVP2,2013-08-11 18:44:00,
2013-08-11 14:45:00,77.9,62.6,29.28,WNW,284,4.0,9.0,59,0.00,,,0.00,WUHU216DAVISVP2,2013-08-11 18:45:00,
2013-08-11 14:48:00,78.1,61.8,29.28,WNW,291,5.0,9.0,57,0.00,,,0.00,WUHU216DAVISVP2,2013-08-11 18:48:00,
2013-08-11 14:49:00,78.2,61.9,29.28,WNW,293,5.0,9.0,57,0.00,,,0.00,WUHU216DAVISVP2,2013-08-11 18:49:00,
2013-08-11 14:50:00,78.3,62.0,29.28,West,277,7.0,9.0,57,0.00,,,0.00,WUHU216DAVISVP2,2013-08-11 18:50:00,
2013-08-11 14:53:00,78.4,62.1,29.28,West,260,1.0,10.0,57,0.00,,,0.00,WUHU216DAVISVP2,2013-08-11 18:53:00,
2013-08-11 14:54:00,78.5,62.7,29.28,NW,314,7.0,10.0,58,0.00,,,0.00,WUHU216DAVISVP2,2013-08-11 18:54:00,
2013-08-11 14:55:00,78.5,62.7,29.28,NW,325,9.0,10.0,58,0.00,,,0.00,WUHU216DAVISVP2,2013-08-11 18:55:00,
2013-08-11 14:56:00,78.5,62.2,29.28,NNW,340,5.0,13.0,57,0.00,,,0.00,WUHU216DAVISVP2,2013-08-11 18:56:00,
2013-08-11 14:58:00,78.6,61.8,29.28,NW,322,6.0,13.0,56,0.00,,,0.00,WUHU216DAVISVP2,2013-08-11 18:58:00,
2013-08-11 15:00:00,78.6,62.8,29.28,North,349,7.0,13.0,58,0.00,,,0.00,WUHU216DAVISVP2,2013-08-11 19:00:00,
2013-08-11 15:01:00,78.7,62.9,29.28,NNW,334,5.0,13.0,58,0.00,,,0.00,WUHU216DAVISVP2,2013-08-11 19:01:00,
2013-08-11 15:03:00,78.7,62.4,29.28,NNW,347,7.0,13.0,57,0.00,,,0.00,WUHU216DAVISVP2,2013-08-11 19:03:00,
2013-08-11 15:05:00,78.4,62.1,29.28,NW,324,8.0,13.0,57,0.00,,,0.00,WUHU216DAVISVP2,2013-08-11 19:05:00,
2013-08-11 15:06:00,78.2,61.9,29.28,NNW,337,6.0,13.0,57,0.00,,,0.00,WUHU216DAVISVP2,2013-08-11 19:06:00,
2013-08-11 15:08:00,78.1,62.3,29.28,NW,307,5.0,13.0,58,0.00,,,0.00,WUHU216DAVISVP2,2013-08-11 19:08:00,
2013-08-11 15:10:00,78.1,61.8,29.28,NW,305,5.0,13.0,57,0.00,,,0.00,WUHU216DAVISVP2,2013-08-11 19:10:00,
2013-08-11 15:11:00,78.2,62.4,29.28,NNW,343,7.0,13.0,58,0.00,,,0.00,WUHU216DAVISVP2,2013-08-11 19:11:00,
2013-08-11 15:13:00,78.3,61.5,29.28,NW,316,7.0,13.0,56,0.00,,,0.00,WUHU216DAVISVP2,2013-08-11 19:13:00,
2013-08-11 15:14:00,78.4,61.6,29.28,NW,312,8.0,11.0,56,0.00,,,0.00,WUHU216DAVISVP2,2013-08-11 19:14:00,
2013-08-11 15:15:00,78.5,61.7,29.28,NW,319,6.0,11.0,56,0.00,,,0.00,WUHU216DAVISVP2,2013-08-11 19:15:00,
2013-08-11 15:16:00,78.5,61.7,29.28,NW,314,2.0,11.0,56,0.00,,,0.00,WUHU216DAVISVP2,2013-08-11 19:16:00,
2013-08-11 15:18:00,78.7,61.9,29.27,WNW,295,6.0,11.0,56,0.00,,,0.00,WUHU216DAVISVP2,2013-08-11 19:18:00,
2013-08-11 15:19:00,78.8,62.0,29.27,NW,306,8.0,11.0,56,0.00,,,0.00,WUHU216DAVISVP2,2013-08-11 19:19:00,
2013-08-11 15:20:00,78.8,62.5,29.27,NW,323,5.0,11.0,57,0.00,,,0.00,WUHU216DAVISVP2,2013-08-11 19:20:00,
2013-08-11 15:22:00,78.9,62.1,29.27,WNW,297,5.0,11.0,56,0.00,,,0.00,WUHU216DAVISVP2,2013-08-11 19:22:00,
2013-08-11 15:23:00,78.9,62.6,29.27,WNW,299,2.0,11.0,57,0.00,,,0.00,WUHU216DAVISVP2,2013-08-11 19:23:00,
2013-08-11 15:25:00,79.0,62.2,29.27,WNW,299,0.0,11.0,56,0.00,,,0.00,WUHU216DAVISVP2,2013-08-11 19:25:00,
2013-08-11 15:27:00,79.3,63.0,29.27,WSW,258,1.0,11.0,57,0.00,,,0.00,WUHU216DAVISVP2,2013-08-11 19:27:00,
2013-08-11 15:28:00,79.4,63.0,29.27,WNW,289,2.0,10.0,57,0.00,,,0.00,WUHU216DAVISVP2,2013-08-11 19:28:00,
2013-08-11 15:30:00,79.6,64.2,29.27,NNW,333,5.0,10.0,59,0.00,,,0.00,WUHU216DAVISVP2,2013-08-11 19:30:00,
2013-08-11 15:32:00,79.4,63.0,29.27,NNE,12,8.0,10.0,57,0.00,,,0.00,WUHU216DAVISVP2,2013-08-11 19:32:00,
2013-08-11 15:35:00,79.2,63.9,29.27,NNW,339,6.0,13.0,59,0.00,,,0.00,WUHU216DAVISVP2,2013-08-11 19:35:00,
2013-08-11 15:36:00,79.2,63.9,29.27,North,4,8.0,13.0,59,0.00,,,0.00,WUHU216DAVISVP2,2013-08-11 19:36:00,
2013-08-11 15:37:00,78.9,63.1,29.26,NW,305,2.0,13.0,58,0.00,,,0.00,WUHU216DAVISVP2,2013-08-11 19:37:00,
2013-08-11 15:40:00,78.8,61.4,29.26,WNW,298,4.0,13.0,55,0.00,,,0.00,WUHU216DAVISVP2,2013-08-11 19:40:00,
2013-08-11 15:41:00,78.8,62.0,29.26,North,354,2.0,13.0,56,0.00,,,0.00,WUHU216DAVISVP2,2013-08-11 19:41:00,
2013-08-11 15:42:00,79.1,63.8,29.26,NW,305,6.0,13.0,59,0.00,,,0.00,WUHU216DAVISVP2,2013-08-11 19:42:00,
2013-08-11 15:46:00,79.1,62.3,29.26,NW,306,10.0,13.0,56,0.00,,,0.00,WUHU216DAVISVP2,2013-08-11 19:46:00,
2013-08-11 15:47:00,79.0,62.2,29.27,WNW,299,7.0,13.0,56,0.00,,,0.00,WUHU216DAVISVP2,2013-08-11 19:47:00,
2013-08-11 15:51:00,79.2,61.3,29.26,WNW,294,6.0,13.0,54,0.00,,,0.00,WUHU216DAVISVP2,2013-08-11 19:51:00,
2013-08-11 15:53:00,79.2,62.3,29.26,NW,323,7.0,11.0,56,0.00,,,0.00,WUHU216DAVISVP2,2013-08-11 19:53:00,
2013-08-11 15:56:00,79.2,63.9,29.26,WNW,302,8.0,11.0,59,0.00,,,0.00,WUHU216DAVISVP2,2013-08-11 19:56:00,
2013-08-11 15:57:00,79.2,62.9,29.26,WNW,295,5.0,11.0,57,0.00,,,0.00,WUHU216DAVISVP2,2013-08-11 19:57:00,
2013-08-11 15:59:00,79.2,63.9,29.26,NW,324,1.0,11.0,59,0.00,,,0.00,WUHU216DAVISVP2,2013-08-11 19:59:00,
2013-08-11 16:02:00,79.5,63.6,29.26,NNW,336,6.0,11.0,58,0.00,,,0.00,WUHU216DAVISVP2,2013-08-11 20:02:00,
2013-08-11 16:03:00,79.4,62.5,29.26,NNW,332,8.0,11.0,56,0.00,,,0.00,WUHU216DAVISVP2,2013-08-11 20:03:00,
2013-08-11 16:04:00,79.3,62.4,29.26,North,354,6.0,11.0,56,0.00,,,0.00,WUHU216DAVISVP2,2013-08-11 20:04:00,
2013-08-11 16:07:00,79.3,64.0,29.26,NW,324,5.0,10.0,59,0.00,,,0.00,WUHU216DAVISVP2,2013-08-11 20:07:00,
2013-08-11 16:09:00,79.4,64.0,29.26,North,354,5.0,10.0,59,0.00,,,0.00,WUHU216DAVISVP2,2013-08-11 20:09:00,
2013-08-11 16:10:00,79.4,64.0,29.26,NW,305,9.0,10.0,59,0.00,,,0.00,WUHU216DAVISVP2,2013-08-11 20:10:00,
2013-08-11 16:11:00,79.4,62.5,29.26,NW,322,7.0,11.0,56,0.00,,,0.00,WUHU216DAVISVP2,2013-08-11 20:11:00,
2013-08-11 16:12:00,79.4,63.0,29.26,NW,314,4.0,11.0,57,0.00,,,0.00,WUHU216DAVISVP2,2013-08-11 20:12:00,
2013-08-11 16:14:00,79.3,62.4,29.26,North,354,4.0,11.0,56,0.00,,,0.00,WUHU216DAVISVP2,2013-08-11 20:14:00,
2013-08-11 16:16:00,79.4,62.5,29.26,NW,314,5.0,11.0,56,0.00,,,0.00,WUHU216DAVISVP2,2013-08-11 20:16:00,
2013-08-11 16:17:00,79.5,63.1,29.26,NW,321,4.0,11.0,57,0.00,,,0.00,WUHU216DAVISVP2,2013-08-11 20:17:00,
2013-08-11 16:18:00,79.5,63.6,29.26,West,277,7.0,11.0,58,0.00,,,0.00,WUHU216DAVISVP2,2013-08-11 20:18:00,
2013-08-11 16:19:00,79.6,64.2,29.26,NW,312,1.0,11.0,59,0.00,,,0.00,WUHU216DAVISVP2,2013-08-11 20:19:00,
2013-08-11 16:21:00,79.7,63.3,29.26,WNW,289,6.0,11.0,57,0.00,,,0.00,WUHU216DAVISVP2,2013-08-11 20:21:00,
2013-08-11 16:22:00,79.7,63.3,29.26,WNW,291,5.0,11.0,57,0.00,,,0.00,WUHU216DAVISVP2,2013-08-11 20:22:00,
2013-08-11 16:23:00,79.6,62.7,29.26,NNW,331,4.0,11.0,56,0.00,,,0.00,WUHU216DAVISVP2,2013-08-11 20:23:00,
2013-08-11 16:24:00,79.6,63.2,29.26,NW,311,4.0,11.0,57,0.00,,,0.00,WUHU216DAVISVP2,2013-08-11 20:24:00,
2013-08-11 16:27:00,79.8,63.9,29.26,NW,316,8.0,11.0,58,0.00,,,0.00,WUHU216DAVISVP2,2013-08-11 20:27:00,
2013-08-11 16:28:00,79.8,62.9,29.26,NW,320,6.0,11.0,56,0.00,,,0.00,WUHU216DAVISVP2,2013-08-11 20:28:00,
2013-08-11 16:29:00,79.7,62.8,29.26,NW,315,5.0,11.0,56,0.00,,,0.00,WUHU216DAVISVP2,2013-08-11 20:29:00,
2013-08-11 16:32:00,79.5,63.6,29.26,WNW,291,7.0,9.0,58,0.00,,,0.00,WUHU216DAVISVP2,2013-08-11 20:32:00,
2013-08-11 16:33:00,79.5,63.6,29.26,WNW,291,6.0,9.0,58,0.00,,,0.00,WUHU216DAVISVP2,2013-08-11 20:33:00,
2013-08-11 16:34:00,79.6,63.7,29.26,WNW,287,6.0,9.0,58,0.00,,,0.00,WUHU216DAVISVP2,2013-08-11 20:34:00,
2013-08-11 16:38:00,79.8,64.4,29.25,NW,326,5.0,9.0,59,0.00,,,0.00,WUHU216DAVISVP2,2013-08-11 20:38:00,
2013-08-11 16:39:00,79.9,65.0,29.25,NNW,332,3.0,9.0,60,0.00,,,0.00,WUHU216DAVISVP2,2013-08-11 20:39:00,
2013-08-11 16:40:00,79.9,65.0,29.26,WNW,299,5.0,9.0,60,0.00,,,0.00,WUHU216DAVISVP2,2013-08-11 20:40:00,
2013-08-11 16:44:00,79.7,63.3,29.27,WNW,299,8.0,10.0,57,0.00,,,0.00,WUHU216DAVISVP2,2013-08-11 20:44:00,
2013-08-11 16:45:00,79.6,63.2,29.26,NNW,327,4.0,10.0,57,0.00,,,0.00,WUHU216DAVISVP2,2013-08-11 20:45:00,
2013-08-11 16:49:00,79.4,63.0,29.26,NNW,330,8.0,11.0,57,0.00,,,0.00,WUHU216DAVISVP2,2013-08-11 20:49:00,
2013-08-11 16:50:00,79.3,63.5,29.26,NW,322,5.0,11.0,58,0.00,,,0.00,WUHU216DAVISVP2,2013-08-11 20:50:00,
2013-08-11 16:54:00,79.3,63.0,29.25,NW,312,5.0,11.0,57,0.00,,,0.00,WUHU216DAVISVP2,2013-08-11 20:54:00,
2013-08-11 16:56:00,79.3,63.5,29.25,NNW,344,8.0,11.0,58,0.00,,,0.00,WUHU216DAVISVP2,2013-08-11 20:56:00,
2013-08-11 16:59:00,79.4,63.6,29.26,NNW,337,5.0,11.0,58,0.00,,,0.00,WUHU216DAVISVP2,2013-08-11 20:59:00,
2013-08-11 17:01:00,79.4,64.0,29.26,North,9,6.0,11.0,59,0.00,,,0.00,WUHU216DAVISVP2,2013-08-11 21:01:00,
2013-08-11 17:05:00,79.3,64.4,29.25,NW,307,7.0,11.0,60,0.00,,,0.00,WUHU216DAVISVP2,2013-08-11 21:05:00,
2013-08-11 17:07:00,79.4,65.0,29.25,NNW,339,8.0,10.0,61,0.00,,,0.00,WUHU216DAVISVP2,2013-08-11 21:07:00,
2013-08-11 17:10:00,79.3,65.4,29.25,NW,323,5.0,10.0,62,0.00,,,0.00,WUHU216DAVISVP2,2013-08-11 21:10:00,
2013-08-11 17:11:00,79.3,65.4,29.25,NW,315,5.0,10.0,62,0.00,,,0.00,WUHU216DAVISVP2,2013-08-11 21:11:00,
2013-08-11 17:13:00,79.3,65.4,29.25,NNW,345,8.0,10.0,62,0.00,,,0.00,WUHU216DAVISVP2,2013-08-11 21:13:00,
2013-08-11 17:14:00,79.2,64.3,29.25,NNW,335,8.0,10.0,60,0.00,,,0.00,WUHU216DAVISVP2,2013-08-11 21:14:00,
2013-08-11 17:15:00,79.1,63.8,29.25,NW,322,8.0,10.0,59,0.00,,,0.00,WUHU216DAVISVP2,2013-08-11 21:15:00,
2013-08-11 17:17:00,78.8,64.0,29.25,NW,312,7.0,10.0,60,0.00,,,0.00,WUHU216DAVISVP2,2013-08-11 21:17:00,
2013-08-11 17:19:00,78.7,64.4,29.25,NW,316,3.0,10.0,61,0.00,,,0.00,WUHU216DAVISVP2,2013-08-11 21:19:00,
2013-08-11 17:20:00,78.8,64.4,29.25,North,354,5.0,10.0,61,0.00,,,0.00,WUHU216DAVISVP2,2013-08-11 21:20:00,
2013-08-11 17:23:00,78.9,64.5,29.25,NNW,328,6.0,9.0,61,0.00,,,0.00,WUHU216DAVISVP2,2013-08-11 21:23:00,
2013-08-11 17:24:00,78.9,64.5,29.25,North,10,7.0,9.0,61,0.00,,,0.00,WUHU216DAVISVP2,2013-08-11 21:24:00,
2013-08-11 17:25:00,78.9,65.0,29.25,North,354,8.0,9.0,62,0.00,,,0.00,WUHU216DAVISVP2,2013-08-11 21:25:00,
2013-08-11 17:26:00,78.9,64.5,29.25,North,354,5.0,9.0,61,0.00,,,0.00,WUHU216DAVISVP2,2013-08-11 21:26:00,
2013-08-11 17:28:00,79.0,64.6,29.25,NE,35,5.0,9.0,61,0.00,,,0.00,WUHU216DAVISVP2,2013-08-11 21:28:00,
2013-08-11 17:29:00,79.0,64.6,29.25,NE,43,5.0,9.0,61,0.00,,,0.00,WUHU216DAVISVP2,2013-08-11 21:29:00,
2013-08-11 17:30:00,79.1,64.3,29.25,North,354,7.0,9.0,60,0.00,,,0.00,WUHU216DAVISVP2,2013-08-11 21:30:00,
2013-08-11 17:32:00,79.1,64.7,29.25,NNW,339,8.0,9.0,61,0.00,,,0.00,WUHU216DAVISVP2,2013-08-11 21:32:00,
2013-08-11 17:33:00,79.0,64.2,29.25,North,350,6.0,9.0,60,0.00,,,0.00,WUHU216DAVISVP2,2013-08-11 21:33:00,
2013-08-11 17:35:00,78.9,64.1,29.25,NNW,335,5.0,9.0,60,0.00,,,0.00,WUHU216DAVISVP2,2013-08-11 21:35:00,
2013-08-11 17:37:00,78.9,64.1,29.25,NNW,343,2.0,9.0,60,0.00,,,0.00,WUHU216DAVISVP2,2013-08-11 21:37:00,
2013-08-11 17:39:00,78.9,64.1,29.25,NNE,27,4.0,9.0,60,0.00,,,0.00,WUHU216DAVISVP2,2013-08-11 21:39:00,
2013-08-11 17:40:00,79.0,64.2,29.25,North,4,6.0,9.0,60,0.00,,,0.00,WUHU216DAVISVP2,2013-08-11 21:40:00,
2013-08-11 17:41:00,79.1,64.7,29.24,NNW,339,8.0,9.0,61,0.00,,,0.00,WUHU216DAVISVP2,2013-08-11 21:41:00,
2013-08-11 17:42:00,79.1,64.3,29.24,NNW,334,6.0,9.0,60,0.00,,,0.00,WUHU216DAVISVP2,2013-08-11 21:42:00,
2013-08-11 17:45:00,79.0,64.2,29.24,NNW,336,5.0,9.0,60,0.00,,,0.00,WUHU216DAVISVP2,2013-08-11 21:45:00,
2013-08-11 17:48:00,79.2,64.3,29.24,NNW,336,7.0,9.0,60,0.00,,,0.00,WUHU216DAVISVP2,2013-08-11 21:48:00,
2013-08-11 17:50:00,79.0,64.2,29.24,North,354,5.0,9.0,60,0.00,,,0.00,WUHU216DAVISVP2,2013-08-11 21:50:00,
2013-08-11 17:51:00,79.0,64.2,29.24,NNW,347,5.0,9.0,60,0.00,,,0.00,WUHU216DAVISVP2,2013-08-11 21:51:00,
2013-08-11 17:54:00,79.0,64.2,29.25,NNW,340,7.0,9.0,60,0.00,,,0.00,WUHU216DAVISVP2,2013-08-11 21:54:00,
2013-08-11 17:55:00,78.9,64.1,29.25,NNW,335,8.0,9.0,60,0.00,,,0.00,WUHU216DAVISVP2,2013-08-11 21:55:00,
2013-08-11 17:56:00,78.9,64.1,29.24,NNW,341,6.0,9.0,60,0.00,,,0.00,WUHU216DAVISVP2,2013-08-11 21:56:00,
2013-08-11 18:00:00,78.8,64.4,29.24,NNW,329,4.0,9.0,61,0.00,,,0.00,WUHU216DAVISVP2,2013-08-11 22:00:00,
2013-08-11 18:01:00,78.8,64.4,29.24,NNE,16,4.0,9.0,61,0.00,,,0.00,WUHU216DAVISVP2,2013-08-11 22:01:00,
2013-08-11 18:05:00,79.1,64.3,29.25,NNW,333,5.0,9.0,60,0.00,,,0.00,WUHU216DAVISVP2,2013-08-11 22:05:00,
2013-08-11 18:06:00,79.1,64.3,29.25,NNW,331,5.0,9.0,60,0.00,,,0.00,WUHU216DAVISVP2,2013-08-11 22:06:00,
2013-08-11 18:10:00,79.1,64.7,29.25,NNW,329,2.0,9.0,61,0.00,,,0.00,WUHU216DAVISVP2,2013-08-11 22:10:00,
2013-08-11 18:11:00,79.2,64.8,29.25,NW,313,5.0,9.0,61,0.00,,,0.00,WUHU216DAVISVP2,2013-08-11 22:11:00,
2013-08-11 18:16:00,78.9,63.6,29.24,NNW,338,6.0,9.0,59,0.00,,,0.00,WUHU216DAVISVP2,2013-08-11 22:16:00,
2013-08-11 18:17:00,78.8,64.0,29.24,NNW,332,2.0,9.0,60,0.00,,,0.00,WUHU216DAVISVP2,2013-08-11 22:17:00,
2013-08-11 18:21:00,78.8,63.5,29.24,NW,326,2.0,9.0,59,0.00,,,0.00,WUHU216DAVISVP2,2013-08-11 22:21:00,
2013-08-11 18:22:00,78.8,64.0,29.24,NNW,341,5.0,9.0,60,0.00,,,0.00,WUHU216DAVISVP2,2013-08-11 22:22:00,
2013-08-11 18:26:00,78.7,63.4,29.24,NW,312,6.0,9.0,59,0.00,,,0.00,WUHU216DAVISVP2,2013-08-11 22:26:00,
2013-08-11 18:27:00,78.7,63.9,29.24,NNW,342,7.0,9.0,60,0.00,,,0.00,WUHU216DAVISVP2,2013-08-11 22:27:00,
2013-08-11 18:31:00,78.5,64.2,29.24,NW,320,3.0,8.0,61,0.00,,,0.00,WUHU216DAVISVP2,2013-08-11 22:31:00,
2013-08-11 18:33:00,78.5,64.2,29.24,NNW,333,5.0,8.0,61,0.00,,,0.00,WUHU216DAVISVP2,2013-08-11 22:33:00,
2013-08-11 18:34:00,78.6,64.3,29.24,NW,324,7.0,8.0,61,0.00,,,0.00,WUHU216DAVISVP2,2013-08-11 22:34:00,
2013-08-11 18:36:00,78.5,63.7,29.24,NW,310,6.0,8.0,60,0.00,,,0.00,WUHU216DAVISVP2,2013-08-11 22:36:00,
2013-08-11 18:38:00,78.4,63.6,29.24,NW,326,4.0,8.0,60,0.00,,,0.00,WUHU216DAVISVP2,2013-08-11 22:38:00,
2013-08-11 18:40:00,78.4,64.1,29.24,NW,319,6.0,8.0,61,0.00,,,0.00,WUHU216DAVISVP2,2013-08-11 22:40:00,
2013-08-11 18:43:00,78.2,63.9,29.24,NNW,332,5.0,8.0,61,0.00,,,0.00,WUHU216DAVISVP2,2013-08-11 22:43:00,
2013-08-11 18:45:00,78.2,63.4,29.24,NW,326,5.0,8.0,60,0.00,,,0.00,WUHU216DAVISVP2,2013-08-11 22:45:00,
2013-08-11 18:48:00,78.1,63.8,29.24,NNW,331,3.0,8.0,61,0.00,,,0.00,WUHU216DAVISVP2,2013-08-11 22:48:00,
2013-08-11 18:49:00,78.1,63.3,29.24,NNW,331,3.0,8.0,60,0.00,,,0.00,WUHU216DAVISVP2,2013-08-11 22:49:00,
2013-08-11 18:51:00,78.2,63.4,29.24,NW,325,4.0,7.0,60,0.00,,,0.00,WUHU216DAVISVP2,2013-08-11 22:51:00,
2013-08-11 18:54:00,78.2,63.9,29.24,NNW,339,5.0,7.0,61,0.00,,,0.00,WUHU216DAVISVP2,2013-08-11 22:54:00,
2013-08-11 18:57:00,78.1,63.8,29.24,NW,314,5.0,7.0,61,0.00,,,0.00,WUHU216DAVISVP2,2013-08-11 22:57:00,
2013-08-11 18:59:00,78.1,64.3,29.24,NW,320,2.0,7.0,62,0.00,,,0.00,WUHU216DAVISVP2,2013-08-11 22:59:00,
2013-08-11 19:00:00,78.0,64.2,29.24,NW,320,3.0,7.0,62,0.00,,,0.00,WUHU216DAVISVP2,2013-08-11 23:00:00,
2013-08-11 19:02:00,78.0,64.2,29.24,NW,320,4.0,7.0,62,0.00,,,0.00,WUHU216DAVISVP2,2013-08-11 23:02:00,
2013-08-11 19:04:00,77.9,64.1,29.25,NNW,329,5.0,8.0,62,0.00,,,0.00,WUHU216DAVISVP2,2013-08-11 23:04:00,
2013-08-11 19:05:00,77.8,64.0,29.25,NW,320,6.0,8.0,62,0.00,,,0.00,WUHU216DAVISVP2,2013-08-11 23:05:00,
2013-08-11 19:07:00,77.7,64.3,29.25,NW,313,5.0,8.0,63,0.00,,,0.00,WUHU216DAVISVP2,2013-08-11 23:07:00,
2013-08-11 19:09:00,77.7,64.3,29.25,NW,316,4.0,8.0,63,0.00,,,0.00,WUHU216DAVISVP2,2013-08-11 23:09:00,
2013-08-11 19:10:00,77.7,63.9,29.24,NNW,328,6.0,8.0,62,0.00,,,0.00,WUHU216DAVISVP2,2013-08-11 23:10:00,
2013-08-11 19:12:00,77.6,63.3,29.24,NNW,340,5.0,8.0,61,0.00,,,0.00,WUHU216DAVISVP2,2013-08-11 23:12:00,
2013-08-11 19:14:00,77.5,64.1,29.25,NNW,335,4.0,8.0,63,0.00,,,0.00,WUHU216DAVISVP2,2013-08-11 23:14:00,
2013-08-11 19:15:00,77.5,63.7,29.25,NNW,339,5.0,8.0,62,0.00,,,0.00,WUHU216DAVISVP2,2013-08-11 23:15:00,
2013-08-11 19:17:00,77.5,63.2,29.25,NW,324,3.0,8.0,61,0.00,,,0.00,WUHU216DAVISVP2,2013-08-11 23:17:00,
2013-08-11 19:18:00,77.5,63.2,29.25,NW,323,4.0,8.0,61,0.00,,,0.00,WUHU216DAVISVP2,2013-08-11 23:18:00,
2013-08-11 19:20:00,77.4,63.6,29.25,NNW,331,5.0,8.0,62,0.00,,,0.00,WUHU216DAVISVP2,2013-08-11 23:20:00,
2013-08-11 19:21:00,77.4,63.6,29.25,NW,310,6.0,8.0,62,0.00,,,0.00,WUHU216DAVISVP2,2013-08-11 23:21:00,
2013-08-11 19:22:00,77.4,63.6,29.25,NW,324,6.0,8.0,62,0.00,,,0.00,WUHU216DAVISVP2,2013-08-11 23:22:00,
2013-08-11 19:23:00,77.3,63.5,29.25,NNW,338,5.0,8.0,62,0.00,,,0.00,WUHU216DAVISVP2,2013-08-11 23:23:00,
2013-08-11 19:25:00,77.3,64.0,29.25,NNW,329,4.0,8.0,63,0.00,,,0.00,WUHU216DAVISVP2,2013-08-11 23:25:00,
2013-08-11 19:27:00,77.2,63.9,29.25,NNW,330,4.0,8.0,63,0.00,,,0.00,WUHU216DAVISVP2,2013-08-11 23:27:00,
2013-08-11 19:28:00,77.2,63.9,29.25,NNW,329,3.0,8.0,63,0.00,,,0.00,WUHU216DAVISVP2,2013-08-11 23:28:00,
2013-08-11 19:29:00,77.2,64.3,29.25,NNW,329,3.0,8.0,64,0.00,,,0.00,WUHU216DAVISVP2,2013-08-11 23:29:00,
2013-08-11 19:31:00,77.1,64.2,29.25,NNW,339,5.0,7.0,64,0.00,,,0.00,WUHU216DAVISVP2,2013-08-11 23:31:00,
2013-08-11 19:32:00,77.1,63.8,29.24,NNW,339,3.0,7.0,63,0.00,,,0.00,WUHU216DAVISVP2,2013-08-11 23:32:00,
2013-08-11 19:33:00,77.1,64.7,29.24,NNW,339,1.0,7.0,65,0.00,,,0.00,WUHU216DAVISVP2,2013-08-11 23:33:00,
2013-08-11 19:35:00,77.1,64.2,29.24,NNW,339,4.0,7.0,64,0.00,,,0.00,WUHU216DAVISVP2,2013-08-11 23:35:00,
2013-08-11 19:37:00,77.1,64.7,29.24,NNW,339,4.0,7.0,65,0.00,,,0.00,WUHU216DAVISVP2,2013-08-11 23:37:00,
2013-08-11 19:39:00,77.0,64.1,29.24,NNW,334,2.0,7.0,64,0.00,,,0.00,WUHU216DAVISVP2,2013-08-11 23:39:00,
2013-08-11 19:40:00,77.0,64.1,29.24,NNW,334,4.0,6.0,64,0.00,,,0.00,WUHU216DAVISVP2,2013-08-11 23:40:00,
2013-08-11 19:42:00,76.9,64.5,29.24,NNW,334,2.0,6.0,65,0.00,,,0.00,WUHU216DAVISVP2,2013-08-11 23:42:00,
2013-08-11 19:43:00,76.9,64.5,29.24,NNW,334,2.0,6.0,65,0.00,,,0.00,WUHU216DAVISVP2,2013-08-11 23:43:00,
2013-08-11 19:44:00,76.9,64.5,29.24,NNW,334,2.0,6.0,65,0.00,,,0.00,WUHU216DAVISVP2,2013-08-11 23:44:00,
2013-08-11 19:46:00,76.9,64.5,29.24,NNW,334,0.0,6.0,65,0.00,,,0.00,WUHU216DAVISVP2,2013-08-11 23:46:00,
2013-08-11 19:48:00,76.8,63.9,29.24,NNW,334,2.0,6.0,64,0.00,,,0.00,WUHU216DAVISVP2,2013-08-11 23:48:00,
2013-08-11 19:49:00,76.8,64.4,29.24,NNW,334,2.0,6.0,65,0.00,,,0.00,WUHU216DAVISVP2,2013-08-11 23:49:00,
2013-08-11 19:52:00,76.6,64.2,29.24,NNW,334,1.0,6.0,65,0.00,,,0.00,WUHU216DAVISVP2,2013-08-11 23:52:00,
2013-08-11 19:54:00,76.6,64.2,29.24,NNW,334,2.0,6.0,65,0.00,,,0.00,WUHU216DAVISVP2,2013-08-11 23:54:00,
2013-08-11 19:55:00,76.5,64.1,29.24,NNW,334,2.0,6.0,65,0.00,,,0.00,WUHU216DAVISVP2,2013-08-11 23:55:00,
2013-08-11 19:57:00,76.5,64.1,29.24,NNW,334,1.0,5.0,65,0.00,,,0.00,WUHU216DAVISVP2,2013-08-11 23:57:00,
2013-08-11 19:59:00,76.4,64.0,29.24,NNW,334,1.0,5.0,65,0.00,,,0.00,WUHU216DAVISVP2,2013-08-11 23:59:00,
2013-08-11 20:00:00,76.5,64.1,29.25,NNW,334,2.0,4.0,65,0.00,,,0.00,WUHU216DAVISVP2,2013-08-12 00:00:00,
2013-08-11 20:02:00,76.4,64.4,29.25,NNW,334,2.0,4.0,66,0.00,,,0.00,WUHU216DAVISVP2,2013-08-12 00:02:00,
2013-08-11 20:04:00,76.2,64.2,29.24,NNW,334,2.0,4.0,66,0.00,,,0.00,WUHU216DAVISVP2,2013-08-12 00:04:00,
2013-08-11 20:05:00,76.2,64.2,29.24,NNW,334,2.0,4.0,66,0.00,,,0.00,WUHU216DAVISVP2,2013-08-12 00:05:00,
2013-08-11 20:06:00,76.1,64.1,29.24,NNW,334,1.0,4.0,66,0.00,,,0.00,WUHU216DAVISVP2,2013-08-12 00:06:00,
2013-08-11 20:07:00,76.0,64.0,29.24,NNW,334,1.0,4.0,66,0.00,,,0.00,WUHU216DAVISVP2,2013-08-12 00:07:00,
2013-08-11 20:10:00,75.9,63.9,29.24,NNW,334,2.0,4.0,66,0.00,,,0.00,WUHU216DAVISVP2,2013-08-12 00:10:00,
2013-08-11 20:11:00,75.8,64.3,29.24,NNW,334,2.0,4.0,67,0.00,,,0.00,WUHU216DAVISVP2,2013-08-12 00:11:00,
2013-08-11 20:13:00,75.8,64.3,29.24,NNW,334,2.0,4.0,67,0.00,,,0.00,WUHU216DAVISVP2,2013-08-12 00:13:00,
2013-08-11 20:16:00,75.7,64.6,29.25,NNW,334,2.0,4.0,68,0.00,,,0.00,WUHU216DAVISVP2,2013-08-12 00:16:00,
2013-08-11 20:19:00,75.5,64.4,29.25,NNW,334,2.0,4.0,68,0.00,,,0.00,WUHU216DAVISVP2,2013-08-12 00:19:00,
2013-08-11 20:21:00,75.4,64.3,29.24,NNW,334,2.0,4.0,68,0.00,,,0.00,WUHU216DAVISVP2,2013-08-12 00:21:00,
2013-08-11 20:22:00,75.4,64.3,29.24,NNW,334,2.0,4.0,68,0.00,,,0.00,WUHU216DAVISVP2,2013-08-12 00:22:00,
2013-08-11 20:24:00,75.3,64.2,29.24,NNW,334,2.0,4.0,68,0.00,,,0.00,WUHU216DAVISVP2,2013-08-12 00:24:00,
2013-08-11 20:26:00,75.3,64.2,29.24,NNW,334,4.0,5.0,68,0.00,,,0.00,WUHU216DAVISVP2,2013-08-12 00:26:00,
2013-08-11 20:27:00,75.2,64.1,29.24,NNW,334,5.0,5.0,68,0.00,,,0.00,WUHU216DAVISVP2,2013-08-12 00:27:00,
2013-08-11 20:30:00,75.2,63.7,29.24,NNW,334,2.0,5.0,67,0.00,,,0.00,WUHU216DAVISVP2,2013-08-12 00:30:00,
2013-08-11 20:31:00,75.1,64.0,29.24,NNW,334,2.0,5.0,68,0.00,,,0.00,WUHU216DAVISVP2,2013-08-12 00:31:00,
2013-08-11 20:32:00,75.1,64.0,29.24,NNW,334,1.0,5.0,68,0.00,,,0.00,WUHU216DAVISVP2,2013-08-12 00:32:00,
2013-08-11 20:33:00,75.1,64.0,29.24,NNW,334,1.0,5.0,68,0.00,,,0.00,WUHU216DAVISVP2,2013-08-12 00:33:00,
2013-08-11 20:35:00,75.0,64.3,29.24,NNW,334,1.0,5.0,69,0.00,,,0.00,WUHU216DAVISVP2,2013-08-12 00:35:00,
2013-08-11 20:37:00,74.9,64.2,29.24,NNW,334,2.0,5.0,69,0.00,,,0.00,WUHU216DAVISVP2,2013-08-12 00:37:00,
2013-08-11 20:38:00,74.9,64.2,29.24,NNW,334,1.0,5.0,69,0.00,,,0.00,WUHU216DAVISVP2,2013-08-12 00:38:00,
2013-08-11 20:41:00,74.7,64.1,29.24,NNW,334,2.0,5.0,69,0.00,,,0.00,WUHU216DAVISVP2,2013-08-12 00:41:00,
2013-08-11 20:42:00,74.6,64.4,29.24,NNW,334,1.0,5.0,70,0.00,,,0.00,WUHU216DAVISVP2,2013-08-12 00:42:00,
2013-08-11 20:43:00,74.6,64.4,29.24,NNW,334,1.0,5.0,70,0.00,,,0.00,WUHU216DAVISVP2,2013-08-12 00:43:00,
2013-08-11 20:46:00,74.5,64.7,29.24,NNW,334,0.0,5.0,71,0.00,,,0.00,WUHU216DAVISVP2,2013-08-12 00:46:00,
2013-08-11 20:48:00,74.3,64.5,29.24,NNW,334,0.0,5.0,71,0.00,,,0.00,WUHU216DAVISVP2,2013-08-12 00:48:00,
2013-08-11 20:49:00,74.3,64.5,29.24,NNW,334,0.0,4.0,71,0.00,,,0.00,WUHU216DAVISVP2,2013-08-12 00:49:00,
2013-08-11 20:51:00,74.2,64.4,29.24,NNW,334,0.0,4.0,71,0.00,,,0.00,WUHU216DAVISVP2,2013-08-12 00:51:00,
2013-08-11 20:53:00,74.1,64.3,29.24,NNW,334,0.0,4.0,71,0.00,,,0.00,WUHU216DAVISVP2,2013-08-12 00:53:00,
2013-08-11 20:54:00,74.1,64.3,29.24,NNW,334,0.0,2.0,71,0.00,,,0.00,WUHU216DAVISVP2,2013-08-12 00:54:00,
2013-08-11 20:56:00,74.0,64.6,29.24,NNW,334,0.0,2.0,72,0.00,,,0.00,WUHU216DAVISVP2,2013-08-12 00:56:00,
2013-08-11 20:58:00,73.9,64.9,29.24,NNW,334,0.0,2.0,73,0.00,,,0.00,WUHU216DAVISVP2,2013-08-12 00:58:00,
2013-08-11 20:59:00,73.9,64.9,29.24,NNW,334,0.0,2.0,73,0.00,,,0.00,WUHU216DAVISVP2,2013-08-12 00:59:00,
2013-08-11 21:02:00,73.7,64.7,29.24,NNW,334,0.0,1.0,73,0.00,,,0.00,WUHU216DAVISVP2,2013-08-12 01:02:00,
2013-08-11 21:04:00,73.5,64.9,29.24,NNW,334,0.0,0.0,74,0.00,,,0.00,WUHU216DAVISVP2,2013-08-12 01:04:00,
2013-08-11 21:07:00,73.3,64.3,29.24,NNW,334,0.0,0.0,73,0.00,,,0.00,WUHU216DAVISVP2,2013-08-12 01:07:00,
2013-08-11 21:09:00,73.2,64.6,29.24,NNW,334,0.0,0.0,74,0.00,,,0.00,WUHU216DAVISVP2,2013-08-12 01:09:00,
2013-08-11 21:12:00,73.1,64.5,29.25,NNW,334,0.0,0.0,74,0.00,,,0.00,WUHU216DAVISVP2,2013-08-12 01:12:00,
2013-08-11 21:14:00,73.0,64.4,29.24,NNW,334,0.0,0.0,74,0.00,,,0.00,WUHU216DAVISVP2,2013-08-12 01:14:00,
2013-08-11 21:15:00,73.0,64.8,29.24,NNW,334,0.0,0.0,75,0.00,,,0.00,WUHU216DAVISVP2,2013-08-12 01:15:00,
2013-08-11 21:16:00,72.9,64.7,29.24,NNW,334,0.0,0.0,75,0.00,,,0.00,WUHU216DAVISVP2,2013-08-12 01:16:00,
2013-08-11 21:18:00,72.8,64.6,29.24,NNW,334,0.0,0.0,75,0.00,,,0.00,WUHU216DAVISVP2,2013-08-12 01:18:00,
2013-08-11 21:19:00,72.7,64.5,29.24,NNW,334,0.0,0.0,75,0.00,,,0.00,WUHU216DAVISVP2,2013-08-12 01:19:00,
2013-08-11 21:20:00,72.7,64.5,29.24,NNW,334,0.0,0.0,75,0.00,,,0.00,WUHU216DAVISVP2,2013-08-12 01:20:00,
2013-08-11 21:22:00,72.6,64.7,29.24,NNW,334,0.0,0.0,76,0.00,,,0.00,WUHU216DAVISVP2,2013-08-12 01:22:00,
2013-08-11 21:23:00,72.6,64.7,29.24,NNW,334,0.0,0.0,76,0.00,,,0.00,WUHU216DAVISVP2,2013-08-12 01:23:00,
2013-08-11 21:24:00,72.4,64.5,29.24,NNW,334,0.0,0.0,76,0.00,,,0.00,WUHU216DAVISVP2,2013-08-12 01:24:00,
2013-08-11 21:26:00,72.4,64.5,29.24,NNW,334,0.0,0.0,76,0.00,,,0.00,WUHU216DAVISVP2,2013-08-12 01:26:00,
2013-08-11 21:27:00,72.3,64.4,29.24,NNW,334,0.0,0.0,76,0.00,,,0.00,WUHU216DAVISVP2,2013-08-12 01:27:00,
2013-08-11 21:28:00,72.2,64.0,29.24,NNW,334,0.0,0.0,75,0.00,,,0.00,WUHU216DAVISVP2,2013-08-12 01:28:00,
2013-08-11 21:31:00,72.1,64.3,29.24,NNW,334,0.0,0.0,76,0.00,,,0.00,WUHU216DAVISVP2,2013-08-12 01:31:00,
2013-08-11 21:32:00,72.1,64.3,29.24,NNW,334,0.0,0.0,76,0.00,,,0.00,WUHU216DAVISVP2,2013-08-12 01:32:00,
2013-08-11 21:35:00,72.0,64.2,29.25,NNW,334,0.0,0.0,76,0.00,,,0.00,WUHU216DAVISVP2,2013-08-12 01:35:00,
2013-08-11 21:36:00,72.0,64.2,29.24,NNW,334,0.0,0.0,76,0.00,,,0.00,WUHU216DAVISVP2,2013-08-12 01:36:00,
2013-08-11 21:37:00,72.0,64.2,29.24,NNW,334,0.0,0.0,76,0.00,,,0.00,WUHU216DAVISVP2,2013-08-12 01:37:00,
2013-08-11 21:41:00,71.9,64.4,29.25,NNW,334,0.0,0.0,77,0.00,,,0.00,WUHU216DAVISVP2,2013-08-12 01:41:00,
2013-08-11 21:42:00,71.9,64.4,29.25,NNW,334,0.0,0.0,77,0.00,,,0.00,WUHU216DAVISVP2,2013-08-12 01:42:00,
2013-08-11 21:46:00,71.8,64.3,29.25,NNW,334,0.0,0.0,77,0.00,,,0.00,WUHU216DAVISVP2,2013-08-12 01:46:00,
2013-08-11 21:47:00,71.7,64.2,29.25,NNW,334,0.0,0.0,77,0.00,,,0.00,WUHU216DAVISVP2,2013-08-12 01:47:00,
2013-08-11 21:48:00,71.7,64.2,29.25,NNW,334,0.0,0.0,77,0.00,,,0.00,WUHU216DAVISVP2,2013-08-12 01:48:00,
2013-08-11 21:51:00,71.6,64.8,29.25,NNW,334,0.0,0.0,79,0.00,,,0.00,WUHU216DAVISVP2,2013-08-12 01:51:00,
2013-08-11 21:52:00,71.6,64.8,29.25,NNW,334,0.0,0.0,79,0.00,,,0.00,WUHU216DAVISVP2,2013-08-12 01:52:00,
2013-08-11 21:53:00,71.5,65.1,29.25,NNW,334,0.0,0.0,80,0.00,,,0.00,WUHU216DAVISVP2,2013-08-12 01:53:00,
2013-08-11 21:56:00,71.4,65.0,29.25,NNW,334,0.0,0.0,80,0.00,,,0.00,WUHU216DAVISVP2,2013-08-12 01:56:00,
2013-08-11 21:58:00,71.3,64.9,29.25,NNW,334,0.0,0.0,80,0.00,,,0.00,WUHU216DAVISVP2,2013-08-12 01:58:00,
2013-08-11 21:59:00,71.2,64.8,29.25,NNW,335,0.0,0.0,80,0.00,,,0.00,WUHU216DAVISVP2,2013-08-12 01:59:00,
2013-08-11 22:01:00,71.1,64.7,29.26,NNW,334,0.0,0.0,80,0.00,,,0.00,WUHU216DAVISVP2,2013-08-12 02:01:00,
2013-08-11 22:03:00,71.1,64.4,29.26,NNW,334,0.0,0.0,79,0.00,,,0.00,WUHU216DAVISVP2,2013-08-12 02:03:00,
2013-08-11 22:05:00,71.1,64.4,29.26,NNW,334,0.0,0.0,79,0.00,,,0.00,WUHU216DAVISVP2,2013-08-12 02:05:00,
2013-08-11 22:07:00,71.0,64.3,29.26,NNW,334,0.0,0.0,79,0.00,,,0.00,WUHU216DAVISVP2,2013-08-12 02:07:00,
2013-08-11 22:08:00,71.1,64.4,29.26,NNW,334,0.0,0.0,79,0.00,,,0.00,WUHU216DAVISVP2,2013-08-12 02:08:00,
2013-08-11 22:09:00,71.1,64.4,29.26,NNW,334,0.0,0.0,79,0.00,,,0.00,WUHU216DAVISVP2,2013-08-12 02:09:00,
2013-08-11 22:10:00,71.1,64.4,29.26,NNW,334,0.0,0.0,79,0.00,,,0.00,WUHU216DAVISVP2,2013-08-12 02:10:00,
2013-08-11 22:12:00,71.0,64.3,29.26,NNW,334,0.0,0.0,79,0.00,,,0.00,WUHU216DAVISVP2,2013-08-12 02:12:00,
2013-08-11 22:13:00,70.9,64.2,29.26,NNW,334,0.0,0.0,79,0.00,,,0.00,WUHU216DAVISVP2,2013-08-12 02:13:00,
2013-08-11 22:14:00,70.9,64.2,29.26,NNW,334,0.0,0.0,79,0.00,,,0.00,WUHU216DAVISVP2,2013-08-12 02:14:00,
2013-08-11 22:15:00,70.8,64.1,29.26,NNW,334,0.0,0.0,79,0.00,,,0.00,WUHU216DAVISVP2,2013-08-12 02:15:00,
2013-08-11 22:18:00,70.8,64.1,29.26,NNW,334,0.0,0.0,79,0.00,,,0.00,WUHU216DAVISVP2,2013-08-12 02:18:00,
2013-08-11 22:19:00,70.7,64.0,29.26,NNW,334,0.0,0.0,79,0.00,,,0.00,WUHU216DAVISVP2,2013-08-12 02:19:00,
2013-08-11 22:21:00,70.7,64.3,29.26,NNW,334,0.0,0.0,80,0.00,,,0.00,WUHU216DAVISVP2,2013-08-12 02:21:00,
2013-08-11 22:23:00,70.6,64.2,29.27,NNW,334,0.0,0.0,80,0.00,,,0.00,WUHU216DAVISVP2,2013-08-12 02:23:00,
2013-08-11 22:24:00,70.6,64.6,29.27,NNW,334,0.0,0.0,81,0.00,,,0.00,WUHU216DAVISVP2,2013-08-12 02:24:00,
2013-08-11 22:26:00,70.5,64.5,29.27,NNW,334,0.0,0.0,81,0.00,,,0.00,WUHU216DAVISVP2,2013-08-12 02:26:00,
2013-08-11 22:28:00,70.5,64.5,29.27,NNW,334,0.0,0.0,81,0.00,,,0.00,WUHU216DAVISVP2,2013-08-12 02:28:00,
2013-08-11 22:29:00,70.4,64.4,29.27,NNW,334,0.0,0.0,81,0.00,,,0.00,WUHU216DAVISVP2,2013-08-12 02:29:00,
2013-08-11 22:30:00,70.4,64.4,29.27,NNW,334,0.0,0.0,81,0.00,,,0.00,WUHU216DAVISVP2,2013-08-12 02:30:00,
2013-08-11 22:31:00,70.3,64.3,29.26,NNW,334,0.0,0.0,81,0.00,,,0.00,WUHU216DAVISVP2,2013-08-12 02:31:00,
2013-08-11 22:34:00,70.2,64.2,29.26,NNW,334,0.0,0.0,81,0.00,,,0.00,WUHU216DAVISVP2,2013-08-12 02:34:00,
2013-08-11 22:35:00,70.2,64.2,29.26,NNW,334,0.0,0.0,81,0.00,,,0.00,WUHU216DAVISVP2,2013-08-12 02:35:00,
2013-08-11 22:36:00,70.2,64.2,29.26,NNW,334,0.0,0.0,81,0.00,,,0.00,WUHU216DAVISVP2,2013-08-12 02:36:00,
2013-08-11 22:40:00,70.1,64.4,29.26,NNW,334,0.0,0.0,82,0.00,,,0.00,WUHU216DAVISVP2,2013-08-12 02:40:00,
2013-08-11 22:41:00,70.1,64.4,29.26,NNW,334,0.0,0.0,82,0.00,,,0.00,WUHU216DAVISVP2,2013-08-12 02:41:00,
2013-08-11 22:43:00,70.0,64.3,29.27,NNW,334,0.0,0.0,82,0.00,,,0.00,WUHU216DAVISVP2,2013-08-12 02:43:00,
2013-08-11 22:45:00,69.9,64.2,29.27,NNW,334,0.0,0.0,82,0.00,,,0.00,WUHU216DAVISVP2,2013-08-12 02:45:00,
2013-08-11 22:46:00,69.9,64.2,29.27,NNW,334,0.0,0.0,82,0.00,,,0.00,WUHU216DAVISVP2,2013-08-12 02:46:00,
2013-08-11 22:48:00,69.7,64.0,29.27,NNW,334,0.0,0.0,82,0.00,,,0.00,WUHU216DAVISVP2,2013-08-12 02:48:00,
2013-08-11 22:51:00,69.6,64.3,29.26,NNW,334,0.0,0.0,83,0.00,,,0.00,WUHU216DAVISVP2,2013-08-12 02:51:00,
2013-08-11 22:52:00,69.5,64.2,29.26,NNW,334,0.0,0.0,83,0.00,,,0.00,WUHU216DAVISVP2,2013-08-12 02:52:00,
2013-08-11 22:54:00,69.5,64.2,29.26,NNW,334,0.0,0.0,83,0.00,,,0.00,WUHU216DAVISVP2,2013-08-12 02:54:00,
2013-08-11 22:56:00,69.4,64.1,29.26,NNW,334,0.0,1.0,83,0.00,,,0.00,WUHU216DAVISVP2,2013-08-12 02:56:00,
2013-08-11 22:57:00,69.3,64.3,29.26,NNW,334,0.0,1.0,84,0.00,,,0.00,WUHU216DAVISVP2,2013-08-12 02:57:00,
2013-08-11 22:59:00,69.2,64.2,29.26,NNW,334,0.0,1.0,84,0.00,,,0.00,WUHU216DAVISVP2,2013-08-12 02:59:00,
2013-08-11 23:02:00,69.1,64.1,29.26,NNW,334,0.0,1.0,84,0.00,,,0.00,WUHU216DAVISVP2,2013-08-12 03:02:00,
2013-08-11 23:03:00,69.0,64.0,29.26,NNW,334,0.0,1.0,84,0.00,,,0.00,WUHU216DAVISVP2,2013-08-12 03:03:00,
2013-08-11 23:05:00,69.0,64.0,29.26,NNW,334,0.0,1.0,84,0.00,,,0.00,WUHU216DAVISVP2,2013-08-12 03:05:00,
2013-08-11 23:07:00,69.0,64.0,29.26,NNW,334,0.0,1.0,84,0.00,,,0.00,WUHU216DAVISVP2,2013-08-12 03:07:00,
2013-08-11 23:09:00,68.9,63.9,29.26,NNW,334,0.0,1.0,84,0.00,,,0.00,WUHU216DAVISVP2,2013-08-12 03:09:00,
2013-08-11 23:10:00,68.8,63.8,29.26,NNW,334,0.0,1.0,84,0.00,,,0.00,WUHU216DAVISVP2,2013-08-12 03:10:00,
2013-08-11 23:12:00,68.8,63.8,29.26,NNW,334,0.0,1.0,84,0.00,,,0.00,WUHU216DAVISVP2,2013-08-12 03:12:00,
2013-08-11 23:13:00,68.7,63.7,29.26,NNW,334,0.0,1.0,84,0.00,,,0.00,WUHU216DAVISVP2,2013-08-12 03:13:00,
2013-08-11 23:14:00,68.7,63.7,29.26,NNW,334,0.0,1.0,84,0.00,,,0.00,WUHU216DAVISVP2,2013-08-12 03:14:00,
2013-08-11 23:16:00,68.6,63.6,29.26,NNW,334,0.0,0.0,84,0.00,,,0.00,WUHU216DAVISVP2,2013-08-12 03:16:00,
2013-08-11 23:18:00,68.6,63.6,29.26,NNW,334,0.0,0.0,84,0.00,,,0.00,WUHU216DAVISVP2,2013-08-12 03:18:00,
2013-08-11 23:20:00,68.6,63.6,29.26,NNW,334,0.0,0.0,84,0.00,,,0.00,WUHU216DAVISVP2,2013-08-12 03:20:00,
2013-08-11 23:22:00,68.5,63.8,29.27,NNW,334,0.0,0.0,85,0.00,,,0.00,WUHU216DAVISVP2,2013-08-12 03:22:00,
2013-08-11 23:23:00,68.5,63.8,29.27,NNW,334,0.0,0.0,85,0.00,,,0.00,WUHU216DAVISVP2,2013-08-12 03:23:00,
2013-08-11 23:25:00,68.5,63.5,29.27,NNW,334,0.0,0.0,84,0.00,,,0.00,WUHU216DAVISVP2,2013-08-12 03:25:00,
2013-08-11 23:28:00,68.4,63.4,29.26,NNW,334,0.0,0.0,84,0.00,,,0.00,WUHU216DAVISVP2,2013-08-12 03:28:00,
2013-08-11 23:31:00,68.4,63.7,29.26,NNW,334,0.0,0.0,85,0.00,,,0.00,WUHU216DAVISVP2,2013-08-12 03:31:00,
2013-08-11 23:33:00,68.4,63.7,29.26,NNW,334,0.0,0.0,85,0.00,,,0.00,WUHU216DAVISVP2,2013-08-12 03:33:00,
2013-08-11 23:36:00,68.3,63.6,29.26,NNW,334,0.0,0.0,85,0.00,,,0.00,WUHU216DAVISVP2,2013-08-12 03:36:00,
2013-08-11 23:38:00,68.2,63.5,29.26,NNW,334,0.0,0.0,85,0.00,,,0.00,WUHU216DAVISVP2,2013-08-12 03:38:00,
2013-08-11 23:39:00,68.1,63.4,29.26,NNW,334,0.0,0.0,85,0.00,,,0.00,WUHU216DAVISVP2,2013-08-12 03:39:00,
2013-08-11 23:41:00,68.1,63.4,29.26,NNW,334,0.0,0.0,85,0.00,,,0.00,WUHU216DAVISVP2,2013-08-12 03:41:00,
2013-08-11 23:44:00,68.0,63.3,29.26,NNW,334,0.0,0.0,85,0.00,,,0.00,WUHU216DAVISVP2,2013-08-12 03:44:00,
2013-08-11 23:48:00,67.8,63.5,29.26,NNW,334,0.0,0.0,86,0.00,,,0.00,WUHU216DAVISVP2,2013-08-12 03:48:00,
2013-08-11 23:49:00,67.8,63.5,29.26,NNW,334,0.0,0.0,86,0.00,,,0.00,WUHU216DAVISVP2,2013-08-12 03:49:00,
2013-08-11 23:53:00,67.6,63.3,29.26,NNW,334,0.0,0.0,86,0.00,,,0.00,WUHU216DAVISVP2,2013-08-12 03:53:00,
2013-08-11 23:54:00,67.6,63.6,29.26,NNW,334,0.0,0.0,87,0.00,,,0.00,WUHU216DAVISVP2,2013-08-12 03:54:00,
2013-08-11 23:56:00,67.5,63.5,29.26,NNW,334,0.0,0.0,87,0.00,,,0.00,WUHU216DAVISVP2,2013-08-12 03:56:00,
2013-08-11 23:59:00,67.4,63.7,29.26,NNW,334,0.0,0.0,88,0.00,,,0.00,WUHU216DAVISVP2,2013-08-12 03:59:00,